<?xml version="1.0" encoding="UTF-8" standalone="no" ?>
<gpx xmlns="http://www.topografix.com/GPX/1/1" xmlns:xsi="http://www.w3.org/2001/XMLSchema-instance" xsi:schemaLocation="http://www.topografix.com/GPX/1/1 http://www.topografix.com/GPX/1/1/gpx.xsd" version="1.1" creator="VisuGPX - https://www.visugpx.com">
  <metadata>
    <name>Lhuis g4</name>
  </metadata>
  <wpt lat="45.74725" lon="5.53231">
    <ele>393</ele>
    <name><![CDATA[Place de la gare]]></name>
  </wpt>
  <wpt lat="45.74439" lon="5.52464">
    <ele>378.7</ele>
    <name><![CDATA[Fourche]]></name>
  </wpt>
  <wpt lat="45.7438" lon="5.52415">
    <ele>376.1</ele>
    <name><![CDATA[Ferme de naray]]></name>
  </wpt>
  <wpt lat="45.75572" lon="5.5067">
    <ele>351.4</ele>
    <name><![CDATA[Sortie voie du tram]]></name>
  </wpt>
  <wpt lat="45.75892" lon="5.51004">
    <ele>465.7</ele>
    <name><![CDATA[Clairière]]></name>
  </wpt>
  <wpt lat="45.76023" lon="5.5113">
    <ele>506.6</ele>
    <name><![CDATA[Carrefour]]></name>
  </wpt>
  <wpt lat="45.75374" lon="5.52015">
    <ele>489.4</ele>
    <name><![CDATA[Sentier balisé jaune]]></name>
  </wpt>
  <wpt lat="45.75805" lon="5.51937">
    <ele>476.4</ele>
    <name><![CDATA[Point de vue Milieu]]></name>
  </wpt>
  <wpt lat="45.75987" lon="5.52267">
    <ele>428.1</ele>
    <name><![CDATA[Carrefour D79]]></name>
  </wpt>
  <wpt lat="45.76055" lon="5.52473">
    <ele>436.1</ele>
    <name><![CDATA[Lavoir et ruisseau]]></name>
  </wpt>
  <wpt lat="45.76114" lon="5.52602">
    <ele>452.5</ele>
    <name><![CDATA[Quitter la rive du ruisseau]]></name>
  </wpt>
  <wpt lat="45.7617" lon="5.52877">
    <ele>485.9</ele>
    <name><![CDATA[Carrefour vers St Martin]]></name>
  </wpt>
  <wpt lat="45.75999" lon="5.53039">
    <ele>505.5</ele>
    <name><![CDATA[Source]]></name>
  </wpt>
  <wpt lat="45.74788" lon="5.53933">
    <ele>476.1</ele>
    <name><![CDATA[Arboretum]]></name>
  </wpt>
  <wpt lat="45.74053" lon="5.55203">
    <ele>480.2</ele>
    <name><![CDATA[Carrefour de la chèvre]]></name>
  </wpt>
  <wpt lat="45.7367" lon="5.54948">
    <ele>376.5</ele>
    <name><![CDATA[La croix ]]></name>
  </wpt>
  <wpt lat="45.73661" lon="5.54976">
    <ele>375.2</ele>
    <name><![CDATA[Ansolin]]></name>
  </wpt>
  <wpt lat="45.73549" lon="5.54797">
    <ele>363.6</ele>
    <name><![CDATA[Bout du mur]]></name>
  </wpt>
  <wpt lat="45.73375" lon="5.54435">
    <ele>341.2</ele>
    <name><![CDATA[Carrefour avec route du Pont de Groslée]]></name>
  </wpt>
  <wpt lat="45.73879" lon="5.53436">
    <ele>370.3</ele>
    <name><![CDATA[Gros chêne ]]></name>
  </wpt>
  <wpt lat="45.73824" lon="5.53249">
    <ele>357.7</ele>
    <name><![CDATA[Carefour sortie de route]]></name>
  </wpt>
  <wpt lat="45.743" lon="5.53091">
    <ele>373.2</ele>
    <name><![CDATA[Croix et fontaine]]></name>
  </wpt>
  <wpt lat="45.74724" lon="5.5323">
    <ele>393</ele>
    <name><![CDATA[Place de la Gare]]></name>
  </wpt>
  <trk>
    <name><![CDATA[Boucle autour de Lhuis, entre Milieu et Ansolin]]></name>
    <extensions>
      <line xmlns="http://www.topografix.com/GPX/gpx_style/0/2">
        <color>0000FF</color>
        <width>4</width>
      </line>
    </extensions>
    <trkseg>
      <trkpt lat="45.74725" lon="5.53231">
        <ele>390</ele>
        <time>2019-12-19T09:47:09+01:00</time>
        <extensions>
          <visugpx:TrkExtension xmlns:visugpx="https://www.visugpx.com/editgpx/">
            <visugpx:node>5</visugpx:node>
            </visugpx:TrkExtension>
        </extensions>
      </trkpt>
      <trkpt lat="45.74721" lon="5.53206">
        <ele>390</ele>
        <time>2019-12-19T09:50:56+01:00</time>
      </trkpt>
      <trkpt lat="45.74727" lon="5.53174">
        <ele>390</ele>
        <time>2019-12-19T09:51:17+01:00</time>
      </trkpt>
      <trkpt lat="45.74718" lon="5.53143">
        <ele>390</ele>
        <time>2019-12-19T09:51:36+01:00</time>
      </trkpt>
      <trkpt lat="45.74701" lon="5.53121">
        <ele>391</ele>
        <time>2019-12-19T09:51:53+01:00</time>
      </trkpt>
      <trkpt lat="45.74682" lon="5.53103">
        <ele>390</ele>
        <time>2019-12-19T09:52:07+01:00</time>
      </trkpt>
      <trkpt lat="45.74663" lon="5.53082">
        <ele>388</ele>
        <time>2019-12-19T09:52:25+01:00</time>
      </trkpt>
      <trkpt lat="45.74642" lon="5.53068">
        <ele>385</ele>
        <time>2019-12-19T09:52:50+01:00</time>
      </trkpt>
      <trkpt lat="45.74624" lon="5.53048">
        <ele>383</ele>
        <time>2019-12-19T09:53:04+01:00</time>
      </trkpt>
      <trkpt lat="45.74609" lon="5.53021">
        <ele>382</ele>
        <time>2019-12-19T09:53:18+01:00</time>
      </trkpt>
      <trkpt lat="45.74595" lon="5.52995">
        <ele>382</ele>
        <time>2019-12-19T09:53:45+01:00</time>
      </trkpt>
      <trkpt lat="45.74582" lon="5.52967">
        <ele>382</ele>
        <time>2019-12-19T09:54:08+01:00</time>
      </trkpt>
      <trkpt lat="45.74571" lon="5.52937">
        <ele>383</ele>
        <time>2019-12-19T09:54:22+01:00</time>
      </trkpt>
      <trkpt lat="45.74554" lon="5.52905">
        <ele>383</ele>
        <time>2019-12-19T09:54:36+01:00</time>
      </trkpt>
      <trkpt lat="45.74541" lon="5.52878">
        <ele>385</ele>
        <time>2019-12-19T09:54:47+01:00</time>
      </trkpt>
      <trkpt lat="45.74524" lon="5.52853">
        <ele>386</ele>
        <time>2019-12-19T09:55:08+01:00</time>
      </trkpt>
      <trkpt lat="45.74505" lon="5.52835">
        <ele>384</ele>
        <time>2019-12-19T09:55:23+01:00</time>
      </trkpt>
      <trkpt lat="45.74486" lon="5.52814">
        <ele>381</ele>
        <time>2019-12-19T09:55:40+01:00</time>
      </trkpt>
      <trkpt lat="45.74471" lon="5.52788">
        <ele>379</ele>
        <time>2019-12-19T09:56:00+01:00</time>
      </trkpt>
      <trkpt lat="45.7447" lon="5.52753">
        <ele>381</ele>
        <time>2019-12-19T09:56:22+01:00</time>
      </trkpt>
      <trkpt lat="45.74463" lon="5.52721">
        <ele>381</ele>
        <time>2019-12-19T09:56:38+01:00</time>
      </trkpt>
      <trkpt lat="45.74454" lon="5.5269">
        <ele>379</ele>
        <time>2019-12-19T09:56:54+01:00</time>
      </trkpt>
      <trkpt lat="45.7445" lon="5.52657">
        <ele>378</ele>
        <time>2019-12-19T09:57:05+01:00</time>
      </trkpt>
      <trkpt lat="45.74447" lon="5.52624">
        <ele>377</ele>
        <time>2019-12-19T09:57:26+01:00</time>
      </trkpt>
      <trkpt lat="45.7445" lon="5.52589">
        <ele>376</ele>
        <time>2019-12-19T09:57:42+01:00</time>
      </trkpt>
      <trkpt lat="45.74454" lon="5.52553">
        <ele>375</ele>
        <time>2019-12-19T09:57:52+01:00</time>
      </trkpt>
      <trkpt lat="45.74459" lon="5.52522">
        <ele>376</ele>
        <time>2019-12-19T09:58:37+01:00</time>
      </trkpt>
      <trkpt lat="45.74453" lon="5.5249">
        <ele>378</ele>
        <time>2019-12-19T09:58:57+01:00</time>
      </trkpt>
      <trkpt lat="45.74439" lon="5.52464">
        <ele>378</ele>
        <time>2019-12-19T09:59:08+01:00</time>
      </trkpt>
      <trkpt lat="45.7442" lon="5.52447">
        <ele>378</ele>
        <time>2019-12-19T09:59:22+01:00</time>
      </trkpt>
      <trkpt lat="45.74398" lon="5.52437">
        <ele>375</ele>
        <time>2019-12-19T09:59:38+01:00</time>
      </trkpt>
      <trkpt lat="45.7438" lon="5.52415">
        <ele>374</ele>
        <time>2019-12-19T09:59:57+01:00</time>
      </trkpt>
      <trkpt lat="45.74368" lon="5.52387">
        <ele>374</ele>
        <time>2019-12-19T10:00:17+01:00</time>
      </trkpt>
      <trkpt lat="45.7436" lon="5.52354">
        <ele>373</ele>
        <time>2019-12-19T10:00:29+01:00</time>
      </trkpt>
      <trkpt lat="45.7435" lon="5.52324">
        <ele>373</ele>
        <time>2019-12-19T10:00:45+01:00</time>
      </trkpt>
      <trkpt lat="45.7434" lon="5.52293">
        <ele>371</ele>
        <time>2019-12-19T10:01:03+01:00</time>
      </trkpt>
      <trkpt lat="45.74334" lon="5.52261">
        <ele>369</ele>
        <time>2019-12-19T10:01:19+01:00</time>
      </trkpt>
      <trkpt lat="45.74345" lon="5.5223">
        <ele>370</ele>
        <time>2019-12-19T10:01:35+01:00</time>
      </trkpt>
      <trkpt lat="45.74358" lon="5.52202">
        <ele>370</ele>
        <time>2019-12-19T10:01:54+01:00</time>
      </trkpt>
      <trkpt lat="45.74374" lon="5.52178">
        <ele>370</ele>
        <time>2019-12-19T10:02:10+01:00</time>
      </trkpt>
      <trkpt lat="45.74389" lon="5.52152">
        <ele>368</ele>
        <time>2019-12-19T10:02:28+01:00</time>
      </trkpt>
      <trkpt lat="45.74403" lon="5.52126">
        <ele>367</ele>
        <time>2019-12-19T10:02:43+01:00</time>
      </trkpt>
      <trkpt lat="45.74418" lon="5.521">
        <ele>366</ele>
        <time>2019-12-19T10:03:00+01:00</time>
      </trkpt>
      <trkpt lat="45.74433" lon="5.52076">
        <ele>366</ele>
        <time>2019-12-19T10:03:18+01:00</time>
      </trkpt>
      <trkpt lat="45.74447" lon="5.5205">
        <ele>367</ele>
        <time>2019-12-19T10:03:37+01:00</time>
      </trkpt>
      <trkpt lat="45.74445" lon="5.52018">
        <ele>365</ele>
        <time>2019-12-19T10:03:55+01:00</time>
      </trkpt>
      <trkpt lat="45.74438" lon="5.51987">
        <ele>363</ele>
        <time>2019-12-19T10:04:11+01:00</time>
      </trkpt>
      <trkpt lat="45.74428" lon="5.51958">
        <ele>363</ele>
        <time>2019-12-19T10:04:27+01:00</time>
      </trkpt>
      <trkpt lat="45.74419" lon="5.51926">
        <ele>362</ele>
        <time>2019-12-19T10:04:43+01:00</time>
      </trkpt>
      <trkpt lat="45.7442" lon="5.51893">
        <ele>361</ele>
        <time>2019-12-19T10:05:01+01:00</time>
      </trkpt>
      <trkpt lat="45.74425" lon="5.51861">
        <ele>362</ele>
        <time>2019-12-19T10:05:19+01:00</time>
      </trkpt>
      <trkpt lat="45.74431" lon="5.51828">
        <ele>362</ele>
        <time>2019-12-19T10:05:39+01:00</time>
      </trkpt>
      <trkpt lat="45.74439" lon="5.51798">
        <ele>362</ele>
        <time>2019-12-19T10:05:54+01:00</time>
      </trkpt>
      <trkpt lat="45.74447" lon="5.51766">
        <ele>360</ele>
        <time>2019-12-19T10:06:07+01:00</time>
      </trkpt>
      <trkpt lat="45.74458" lon="5.51737">
        <ele>359</ele>
        <time>2019-12-19T10:06:21+01:00</time>
      </trkpt>
      <trkpt lat="45.74468" lon="5.51708">
        <ele>358</ele>
        <time>2019-12-19T10:06:37+01:00</time>
      </trkpt>
      <trkpt lat="45.74484" lon="5.51685">
        <ele>359</ele>
        <time>2019-12-19T10:06:53+01:00</time>
      </trkpt>
      <trkpt lat="45.74496" lon="5.51655">
        <ele>361</ele>
        <time>2019-12-19T10:07:14+01:00</time>
      </trkpt>
      <trkpt lat="45.74509" lon="5.51626">
        <ele>362</ele>
        <time>2019-12-19T10:07:31+01:00</time>
      </trkpt>
      <trkpt lat="45.74518" lon="5.51595">
        <ele>363</ele>
        <time>2019-12-19T10:07:46+01:00</time>
      </trkpt>
      <trkpt lat="45.74528" lon="5.51563">
        <ele>365</ele>
        <time>2019-12-19T10:08:07+01:00</time>
      </trkpt>
      <trkpt lat="45.74534" lon="5.51531">
        <ele>364</ele>
        <time>2019-12-19T10:08:24+01:00</time>
      </trkpt>
      <trkpt lat="45.74544" lon="5.51501">
        <ele>363</ele>
        <time>2019-12-19T10:08:39+01:00</time>
      </trkpt>
      <trkpt lat="45.74553" lon="5.5147">
        <ele>361</ele>
        <time>2019-12-19T10:09:01+01:00</time>
      </trkpt>
      <trkpt lat="45.74572" lon="5.51454">
        <ele>361</ele>
        <time>2019-12-19T10:10:19+01:00</time>
      </trkpt>
      <trkpt lat="45.74593" lon="5.51439">
        <ele>362</ele>
        <time>2019-12-19T10:10:34+01:00</time>
      </trkpt>
      <trkpt lat="45.74614" lon="5.51422">
        <ele>362</ele>
        <time>2019-12-19T10:10:52+01:00</time>
      </trkpt>
      <trkpt lat="45.74635" lon="5.51405">
        <ele>363</ele>
        <time>2019-12-19T10:11:09+01:00</time>
      </trkpt>
      <trkpt lat="45.74653" lon="5.51384">
        <ele>362</ele>
        <time>2019-12-19T10:11:24+01:00</time>
      </trkpt>
      <trkpt lat="45.74674" lon="5.51369">
        <ele>363</ele>
        <time>2019-12-19T10:11:42+01:00</time>
      </trkpt>
      <trkpt lat="45.74694" lon="5.51354">
        <ele>364</ele>
        <time>2019-12-19T10:12:00+01:00</time>
      </trkpt>
      <trkpt lat="45.74715" lon="5.5134">
        <ele>364</ele>
        <time>2019-12-19T10:12:16+01:00</time>
      </trkpt>
      <trkpt lat="45.74737" lon="5.51328">
        <ele>365</ele>
        <time>2019-12-19T10:12:32+01:00</time>
      </trkpt>
      <trkpt lat="45.74759" lon="5.51324">
        <ele>368</ele>
        <time>2019-12-19T10:12:48+01:00</time>
      </trkpt>
      <trkpt lat="45.74779" lon="5.51308">
        <ele>367</ele>
        <time>2019-12-19T10:13:05+01:00</time>
      </trkpt>
      <trkpt lat="45.748" lon="5.51294">
        <ele>367</ele>
        <time>2019-12-19T10:13:25+01:00</time>
      </trkpt>
      <trkpt lat="45.74823" lon="5.51285">
        <ele>368</ele>
        <time>2019-12-19T10:13:45+01:00</time>
      </trkpt>
      <trkpt lat="45.74845" lon="5.51273">
        <ele>370</ele>
        <time>2019-12-19T10:14:02+01:00</time>
      </trkpt>
      <trkpt lat="45.7486" lon="5.51249">
        <ele>368</ele>
        <time>2019-12-19T10:14:16+01:00</time>
      </trkpt>
      <trkpt lat="45.74874" lon="5.51223">
        <ele>366</ele>
        <time>2019-12-19T10:14:29+01:00</time>
      </trkpt>
      <trkpt lat="45.74891" lon="5.512">
        <ele>365</ele>
        <time>2019-12-19T10:14:45+01:00</time>
      </trkpt>
      <trkpt lat="45.74908" lon="5.51179">
        <ele>366</ele>
        <time>2019-12-19T10:15:07+01:00</time>
      </trkpt>
      <trkpt lat="45.74926" lon="5.51158">
        <ele>367</ele>
        <time>2019-12-19T10:15:18+01:00</time>
      </trkpt>
      <trkpt lat="45.74943" lon="5.51135">
        <ele>366</ele>
        <time>2019-12-19T10:15:36+01:00</time>
      </trkpt>
      <trkpt lat="45.74958" lon="5.51108">
        <ele>364</ele>
        <time>2019-12-19T10:15:54+01:00</time>
      </trkpt>
      <trkpt lat="45.74975" lon="5.51084">
        <ele>363</ele>
        <time>2019-12-19T10:16:11+01:00</time>
      </trkpt>
      <trkpt lat="45.74992" lon="5.51063">
        <ele>361</ele>
        <time>2019-12-19T10:16:29+01:00</time>
      </trkpt>
      <trkpt lat="45.75008" lon="5.51037">
        <ele>358</ele>
        <time>2019-12-19T10:16:46+01:00</time>
      </trkpt>
      <trkpt lat="45.75027" lon="5.51019">
        <ele>356</ele>
        <time>2019-12-19T10:17:04+01:00</time>
      </trkpt>
      <trkpt lat="45.75047" lon="5.51004">
        <ele>358</ele>
        <time>2019-12-19T10:17:21+01:00</time>
      </trkpt>
      <trkpt lat="45.75068" lon="5.50989">
        <ele>361</ele>
        <time>2019-12-19T10:17:38+01:00</time>
      </trkpt>
      <trkpt lat="45.75083" lon="5.50964">
        <ele>361</ele>
        <time>2019-12-19T10:17:55+01:00</time>
      </trkpt>
      <trkpt lat="45.75094" lon="5.50935">
        <ele>360</ele>
        <time>2019-12-19T10:18:10+01:00</time>
      </trkpt>
      <trkpt lat="45.75105" lon="5.50908">
        <ele>360</ele>
        <time>2019-12-19T10:18:29+01:00</time>
      </trkpt>
      <trkpt lat="45.75119" lon="5.50881">
        <ele>360</ele>
        <time>2019-12-19T10:18:47+01:00</time>
      </trkpt>
      <trkpt lat="45.75134" lon="5.50857">
        <ele>360</ele>
        <time>2019-12-19T10:19:02+01:00</time>
      </trkpt>
      <trkpt lat="45.75154" lon="5.50839">
        <ele>362</ele>
        <time>2019-12-19T10:19:35+01:00</time>
      </trkpt>
      <trkpt lat="45.75173" lon="5.50821">
        <ele>364</ele>
        <time>2019-12-19T10:19:51+01:00</time>
      </trkpt>
      <trkpt lat="45.75191" lon="5.50799">
        <ele>364</ele>
        <time>2019-12-19T10:20:11+01:00</time>
      </trkpt>
      <trkpt lat="45.7521" lon="5.50782">
        <ele>364</ele>
        <time>2019-12-19T10:20:28+01:00</time>
      </trkpt>
      <trkpt lat="45.75231" lon="5.50768">
        <ele>364</ele>
        <time>2019-12-19T10:20:42+01:00</time>
      </trkpt>
      <trkpt lat="45.75251" lon="5.50752">
        <ele>362</ele>
        <time>2019-12-19T10:21:01+01:00</time>
      </trkpt>
      <trkpt lat="45.75272" lon="5.50736">
        <ele>362</ele>
        <time>2019-12-19T10:21:16+01:00</time>
      </trkpt>
      <trkpt lat="45.75296" lon="5.50731">
        <ele>362</ele>
        <time>2019-12-19T10:21:33+01:00</time>
      </trkpt>
      <trkpt lat="45.75317" lon="5.50742">
        <ele>362</ele>
        <time>2019-12-19T10:21:55+01:00</time>
      </trkpt>
      <trkpt lat="45.75339" lon="5.50757">
        <ele>360</ele>
        <time>2019-12-19T10:22:10+01:00</time>
      </trkpt>
      <trkpt lat="45.75363" lon="5.5076">
        <ele>357</ele>
        <time>2019-12-19T10:22:27+01:00</time>
      </trkpt>
      <trkpt lat="45.75385" lon="5.50752">
        <ele>358</ele>
        <time>2019-12-19T10:22:43+01:00</time>
      </trkpt>
      <trkpt lat="45.75406" lon="5.50736">
        <ele>360</ele>
        <time>2019-12-19T10:23:00+01:00</time>
      </trkpt>
      <trkpt lat="45.75421" lon="5.50711">
        <ele>359</ele>
        <time>2019-12-19T10:23:16+01:00</time>
      </trkpt>
      <trkpt lat="45.75436" lon="5.50685">
        <ele>357</ele>
        <time>2019-12-19T10:23:33+01:00</time>
      </trkpt>
      <trkpt lat="45.75457" lon="5.50671">
        <ele>358</ele>
        <time>2019-12-19T10:23:51+01:00</time>
      </trkpt>
      <trkpt lat="45.75481" lon="5.50671">
        <ele>360</ele>
        <time>2019-12-19T10:24:12+01:00</time>
      </trkpt>
      <trkpt lat="45.75504" lon="5.50683">
        <ele>362</ele>
        <time>2019-12-19T10:24:41+01:00</time>
      </trkpt>
      <trkpt lat="45.75527" lon="5.50687">
        <ele>360</ele>
        <time>2019-12-19T10:24:52+01:00</time>
      </trkpt>
      <trkpt lat="45.7555" lon="5.50682">
        <ele>354</ele>
        <time>2019-12-19T10:25:04+01:00</time>
      </trkpt>
      <trkpt lat="45.75572" lon="5.5067">
        <ele>350</ele>
        <time>2019-12-19T10:25:21+01:00</time>
      </trkpt>
      <trkpt lat="45.75563" lon="5.507">
        <ele>358</ele>
        <time>2019-12-19T10:28:53+01:00</time>
      </trkpt>
      <trkpt lat="45.75558" lon="5.50731">
        <ele>368</ele>
        <time>2019-12-19T10:29:37+01:00</time>
      </trkpt>
      <trkpt lat="45.75559" lon="5.50777">
        <ele>383</ele>
        <time>2019-12-19T10:30:10+01:00</time>
      </trkpt>
      <trkpt lat="45.7558" lon="5.50795">
        <ele>375</ele>
        <time>2019-12-19T10:30:39+01:00</time>
      </trkpt>
      <trkpt lat="45.75595" lon="5.5082">
        <ele>376</ele>
        <time>2019-12-19T10:31:08+01:00</time>
      </trkpt>
      <trkpt lat="45.75615" lon="5.50834">
        <ele>376</ele>
        <time>2019-12-19T10:31:30+01:00</time>
      </trkpt>
      <trkpt lat="45.75631" lon="5.50858">
        <ele>387</ele>
        <time>2019-12-19T10:32:00+01:00</time>
      </trkpt>
      <trkpt lat="45.7565" lon="5.50875">
        <ele>392</ele>
        <time>2019-12-19T10:32:47+01:00</time>
      </trkpt>
      <trkpt lat="45.75666" lon="5.50895">
        <ele>401</ele>
        <time>2019-12-19T10:33:27+01:00</time>
      </trkpt>
      <trkpt lat="45.75691" lon="5.50916">
        <ele>411</ele>
        <time>2019-12-19T10:34:25+01:00</time>
      </trkpt>
      <trkpt lat="45.75712" lon="5.50946">
        <ele>426</ele>
        <time>2019-12-19T10:35:25+01:00</time>
      </trkpt>
      <trkpt lat="45.75733" lon="5.50964">
        <ele>434</ele>
        <time>2019-12-19T10:36:22+01:00</time>
      </trkpt>
      <trkpt lat="45.7575" lon="5.50982">
        <ele>441</ele>
        <time>2019-12-19T10:37:13+01:00</time>
      </trkpt>
      <trkpt lat="45.75767" lon="5.50985">
        <ele>443</ele>
        <time>2019-12-19T10:38:01+01:00</time>
      </trkpt>
      <trkpt lat="45.75791" lon="5.5101">
        <ele>454</ele>
        <time>2019-12-19T10:38:40+01:00</time>
      </trkpt>
      <trkpt lat="45.75812" lon="5.51043">
        <ele>468</ele>
        <time>2019-12-19T10:39:27+01:00</time>
      </trkpt>
      <trkpt lat="45.75838" lon="5.51027">
        <ele>467</ele>
        <time>2019-12-19T10:40:08+01:00</time>
      </trkpt>
      <trkpt lat="45.75858" lon="5.51027">
        <ele>470</ele>
        <time>2019-12-19T10:40:38+01:00</time>
      </trkpt>
      <trkpt lat="45.75876" lon="5.51018">
        <ele>468</ele>
        <time>2019-12-19T10:41:06+01:00</time>
      </trkpt>
      <trkpt lat="45.75892" lon="5.51004">
        <ele>465</ele>
        <time>2019-12-19T10:42:01+01:00</time>
      </trkpt>
      <trkpt lat="45.75903" lon="5.51032">
        <ele>474</ele>
        <time>2019-12-19T10:43:17+01:00</time>
      </trkpt>
      <trkpt lat="45.75916" lon="5.51048">
        <ele>482</ele>
        <time>2019-12-19T10:44:57+01:00</time>
      </trkpt>
      <trkpt lat="45.75937" lon="5.51063">
        <ele>490</ele>
        <time>2019-12-19T10:45:28+01:00</time>
      </trkpt>
      <trkpt lat="45.75956" lon="5.5108">
        <ele>493</ele>
        <time>2019-12-19T10:45:57+01:00</time>
      </trkpt>
      <trkpt lat="45.75977" lon="5.51093">
        <ele>492</ele>
        <time>2019-12-19T10:46:30+01:00</time>
      </trkpt>
      <trkpt lat="45.75997" lon="5.5111">
        <ele>493</ele>
        <time>2019-12-19T10:46:58+01:00</time>
      </trkpt>
      <trkpt lat="45.76006" lon="5.51116">
        <ele>495</ele>
        <time>2019-12-19T10:47:31+01:00</time>
      </trkpt>
      <trkpt lat="45.76023" lon="5.5113">
        <ele>499</ele>
        <time>2019-12-19T10:48:02+01:00</time>
      </trkpt>
      <trkpt lat="45.76012" lon="5.51143">
        <ele>504</ele>
        <time>2019-12-19T10:53:05+01:00</time>
      </trkpt>
      <trkpt lat="45.75988" lon="5.51139">
        <ele>504</ele>
        <time>2019-12-19T10:53:23+01:00</time>
      </trkpt>
      <trkpt lat="45.75966" lon="5.51146">
        <ele>510</ele>
        <time>2019-12-19T10:53:44+01:00</time>
      </trkpt>
      <trkpt lat="45.75945" lon="5.51158">
        <ele>517</ele>
        <time>2019-12-19T10:54:10+01:00</time>
      </trkpt>
      <trkpt lat="45.75909" lon="5.51165">
        <ele>520</ele>
        <time>2019-12-19T10:54:39+01:00</time>
      </trkpt>
      <trkpt lat="45.75915" lon="5.51218">
        <ele>525</ele>
        <time>2019-12-19T10:55:09+01:00</time>
      </trkpt>
      <trkpt lat="45.75895" lon="5.5122">
        <ele>523</ele>
        <time>2019-12-19T10:55:36+01:00</time>
      </trkpt>
      <trkpt lat="45.75873" lon="5.5123">
        <ele>520</ele>
        <time>2019-12-19T10:56:00+01:00</time>
      </trkpt>
      <trkpt lat="45.7586" lon="5.51257">
        <ele>516</ele>
        <time>2019-12-19T10:56:19+01:00</time>
      </trkpt>
      <trkpt lat="45.75849" lon="5.51286">
        <ele>514</ele>
        <time>2019-12-19T10:56:38+01:00</time>
      </trkpt>
      <trkpt lat="45.75845" lon="5.51307">
        <ele>517</ele>
        <time>2019-12-19T10:57:07+01:00</time>
      </trkpt>
      <trkpt lat="45.75809" lon="5.51313">
        <ele>515</ele>
        <time>2019-12-19T10:57:25+01:00</time>
      </trkpt>
      <trkpt lat="45.75786" lon="5.51313">
        <ele>513</ele>
        <time>2019-12-19T10:57:42+01:00</time>
      </trkpt>
      <trkpt lat="45.75763" lon="5.5132">
        <ele>512</ele>
        <time>2019-12-19T10:58:01+01:00</time>
      </trkpt>
      <trkpt lat="45.7574" lon="5.51325">
        <ele>509</ele>
        <time>2019-12-19T10:58:19+01:00</time>
      </trkpt>
      <trkpt lat="45.75716" lon="5.51325">
        <ele>504</ele>
        <time>2019-12-19T10:58:39+01:00</time>
      </trkpt>
      <trkpt lat="45.75694" lon="5.51328">
        <ele>502</ele>
        <time>2019-12-19T10:58:56+01:00</time>
      </trkpt>
      <trkpt lat="45.7567" lon="5.51332">
        <ele>500</ele>
        <time>2019-12-19T10:59:14+01:00</time>
      </trkpt>
      <trkpt lat="45.75646" lon="5.51338">
        <ele>499</ele>
        <time>2019-12-19T10:59:31+01:00</time>
      </trkpt>
      <trkpt lat="45.75626" lon="5.51352">
        <ele>498</ele>
        <time>2019-12-19T10:59:50+01:00</time>
      </trkpt>
      <trkpt lat="45.75611" lon="5.51388">
        <ele>500</ele>
        <time>2019-12-19T11:00:07+01:00</time>
      </trkpt>
      <trkpt lat="45.75594" lon="5.514">
        <ele>499</ele>
        <time>2019-12-19T11:00:25+01:00</time>
      </trkpt>
      <trkpt lat="45.75571" lon="5.51408">
        <ele>498</ele>
        <time>2019-12-19T11:00:45+01:00</time>
      </trkpt>
      <trkpt lat="45.75561" lon="5.51437">
        <ele>501</ele>
        <time>2019-12-19T11:01:05+01:00</time>
      </trkpt>
      <trkpt lat="45.75563" lon="5.51467">
        <ele>504</ele>
        <time>2019-12-19T11:01:25+01:00</time>
      </trkpt>
      <trkpt lat="45.75561" lon="5.515">
        <ele>507</ele>
        <time>2019-12-19T11:01:44+01:00</time>
      </trkpt>
      <trkpt lat="45.75558" lon="5.51532">
        <ele>506</ele>
        <time>2019-12-19T11:02:06+01:00</time>
      </trkpt>
      <trkpt lat="45.75547" lon="5.51562">
        <ele>506</ele>
        <time>2019-12-19T11:02:25+01:00</time>
      </trkpt>
      <trkpt lat="45.75534" lon="5.5159">
        <ele>505</ele>
        <time>2019-12-19T11:02:45+01:00</time>
      </trkpt>
      <trkpt lat="45.75521" lon="5.51618">
        <ele>505</ele>
        <time>2019-12-19T11:03:04+01:00</time>
      </trkpt>
      <trkpt lat="45.75513" lon="5.51649">
        <ele>504</ele>
        <time>2019-12-19T11:03:22+01:00</time>
      </trkpt>
      <trkpt lat="45.75499" lon="5.51675">
        <ele>503</ele>
        <time>2019-12-19T11:03:40+01:00</time>
      </trkpt>
      <trkpt lat="45.7549" lon="5.51705">
        <ele>502</ele>
        <time>2019-12-19T11:03:58+01:00</time>
      </trkpt>
      <trkpt lat="45.75483" lon="5.51737">
        <ele>501</ele>
        <time>2019-12-19T11:04:14+01:00</time>
      </trkpt>
      <trkpt lat="45.75476" lon="5.51769">
        <ele>500</ele>
        <time>2019-12-19T11:17:35+01:00</time>
      </trkpt>
      <trkpt lat="45.75464" lon="5.51797">
        <ele>498</ele>
        <time>2019-12-19T11:17:54+01:00</time>
      </trkpt>
      <trkpt lat="45.75447" lon="5.51817">
        <ele>496</ele>
        <time>2019-12-19T11:18:10+01:00</time>
      </trkpt>
      <trkpt lat="45.75425" lon="5.51829">
        <ele>493</ele>
        <time>2019-12-19T11:18:27+01:00</time>
      </trkpt>
      <trkpt lat="45.75405" lon="5.51849">
        <ele>491</ele>
        <time>2019-12-19T11:18:44+01:00</time>
      </trkpt>
      <trkpt lat="45.75398" lon="5.5188">
        <ele>491</ele>
        <time>2019-12-19T11:19:01+01:00</time>
      </trkpt>
      <trkpt lat="45.75392" lon="5.51912">
        <ele>490</ele>
        <time>2019-12-19T11:19:19+01:00</time>
      </trkpt>
      <trkpt lat="45.75387" lon="5.51945">
        <ele>490</ele>
        <time>2019-12-19T11:19:34+01:00</time>
      </trkpt>
      <trkpt lat="45.75388" lon="5.51978">
        <ele>490</ele>
        <time>2019-12-19T11:19:54+01:00</time>
      </trkpt>
      <trkpt lat="45.75374" lon="5.52015">
        <ele>487</ele>
        <time>2019-12-19T11:20:15+01:00</time>
      </trkpt>
      <trkpt lat="45.75378" lon="5.52036">
        <ele>484</ele>
        <time>2019-12-19T11:20:42+01:00</time>
      </trkpt>
      <trkpt lat="45.75379" lon="5.52069">
        <ele>479</ele>
        <time>2019-12-19T11:21:02+01:00</time>
      </trkpt>
      <trkpt lat="45.75389" lon="5.52098">
        <ele>476</ele>
        <time>2019-12-19T11:21:20+01:00</time>
      </trkpt>
      <trkpt lat="45.75411" lon="5.52107">
        <ele>475</ele>
        <time>2019-12-19T11:21:39+01:00</time>
      </trkpt>
      <trkpt lat="45.75432" lon="5.52096">
        <ele>476</ele>
        <time>2019-12-19T11:22:00+01:00</time>
      </trkpt>
      <trkpt lat="45.75453" lon="5.52083">
        <ele>476</ele>
        <time>2019-12-19T11:22:17+01:00</time>
      </trkpt>
      <trkpt lat="45.75476" lon="5.52076">
        <ele>475</ele>
        <time>2019-12-19T11:22:32+01:00</time>
      </trkpt>
      <trkpt lat="45.75499" lon="5.5207">
        <ele>471</ele>
        <time>2019-12-19T11:22:48+01:00</time>
      </trkpt>
      <trkpt lat="45.75522" lon="5.52066">
        <ele>470</ele>
        <time>2019-12-19T11:23:09+01:00</time>
      </trkpt>
      <trkpt lat="45.75545" lon="5.52058">
        <ele>471</ele>
        <time>2019-12-19T11:23:30+01:00</time>
      </trkpt>
      <trkpt lat="45.75562" lon="5.52038">
        <ele>474</ele>
        <time>2019-12-19T11:23:47+01:00</time>
      </trkpt>
      <trkpt lat="45.75582" lon="5.52019">
        <ele>476</ele>
        <time>2019-12-19T11:24:09+01:00</time>
      </trkpt>
      <trkpt lat="45.75604" lon="5.5201">
        <ele>475</ele>
        <time>2019-12-19T11:24:29+01:00</time>
      </trkpt>
      <trkpt lat="45.75612" lon="5.51976">
        <ele>480</ele>
        <time>2019-12-19T11:24:48+01:00</time>
      </trkpt>
      <trkpt lat="45.75635" lon="5.51963">
        <ele>480</ele>
        <time>2019-12-19T11:25:03+01:00</time>
      </trkpt>
      <trkpt lat="45.75659" lon="5.51958">
        <ele>479</ele>
        <time>2019-12-19T11:25:28+01:00</time>
      </trkpt>
      <trkpt lat="45.75676" lon="5.51954">
        <ele>478</ele>
        <time>2019-12-19T11:25:50+01:00</time>
      </trkpt>
      <trkpt lat="45.757" lon="5.5194">
        <ele>477</ele>
        <time>2019-12-19T11:26:07+01:00</time>
      </trkpt>
      <trkpt lat="45.75724" lon="5.51947">
        <ele>471</ele>
        <time>2019-12-19T11:26:27+01:00</time>
      </trkpt>
      <trkpt lat="45.75747" lon="5.5194">
        <ele>470</ele>
        <time>2019-12-19T11:28:01+01:00</time>
      </trkpt>
      <trkpt lat="45.75762" lon="5.51917">
        <ele>478</ele>
        <time>2019-12-19T11:28:21+01:00</time>
      </trkpt>
      <trkpt lat="45.75798" lon="5.51915">
        <ele>476</ele>
        <time>2019-12-19T11:28:46+01:00</time>
      </trkpt>
      <trkpt lat="45.75805" lon="5.51937">
        <ele>465</ele>
        <time>2019-12-19T11:29:10+01:00</time>
      </trkpt>
      <trkpt lat="45.75827" lon="5.51925">
        <ele>469</ele>
        <time>2019-12-19T11:33:06+01:00</time>
      </trkpt>
      <trkpt lat="45.75847" lon="5.51908">
        <ele>470</ele>
        <time>2019-12-19T11:33:27+01:00</time>
      </trkpt>
      <trkpt lat="45.75865" lon="5.51889">
        <ele>469</ele>
        <time>2019-12-19T11:33:47+01:00</time>
      </trkpt>
      <trkpt lat="45.75888" lon="5.51881">
        <ele>461</ele>
        <time>2019-12-19T11:34:09+01:00</time>
      </trkpt>
      <trkpt lat="45.7591" lon="5.5187">
        <ele>456</ele>
        <time>2019-12-19T11:34:31+01:00</time>
      </trkpt>
      <trkpt lat="45.75928" lon="5.51849">
        <ele>457</ele>
        <time>2019-12-19T11:35:03+01:00</time>
      </trkpt>
      <trkpt lat="45.7595" lon="5.51837">
        <ele>453</ele>
        <time>2019-12-19T11:35:21+01:00</time>
      </trkpt>
      <trkpt lat="45.75971" lon="5.51826">
        <ele>447</ele>
        <time>2019-12-19T11:35:49+01:00</time>
      </trkpt>
      <trkpt lat="45.75995" lon="5.51825">
        <ele>440</ele>
        <time>2019-12-19T11:36:23+01:00</time>
      </trkpt>
      <trkpt lat="45.76014" lon="5.51823">
        <ele>435</ele>
      </trkpt>
      <trkpt lat="45.76007" lon="5.51852">
        <ele>429</ele>
        <time>2019-12-19T11:37:01+01:00</time>
      </trkpt>
      <trkpt lat="45.75986" lon="5.51879">
        <ele>428</ele>
        <time>2019-12-19T11:37:38+01:00</time>
      </trkpt>
      <trkpt lat="45.75983" lon="5.51906">
        <ele>424</ele>
        <time>2019-12-19T11:38:02+01:00</time>
      </trkpt>
      <trkpt lat="45.75963" lon="5.51922">
        <ele>424</ele>
        <time>2019-12-19T11:38:22+01:00</time>
      </trkpt>
      <trkpt lat="45.75946" lon="5.51947">
        <ele>424</ele>
        <time>2019-12-19T11:38:43+01:00</time>
      </trkpt>
      <trkpt lat="45.75923" lon="5.51963">
        <ele>425</ele>
        <time>2019-12-19T11:39:03+01:00</time>
      </trkpt>
      <trkpt lat="45.75909" lon="5.51998">
        <ele>424</ele>
        <time>2019-12-19T11:39:21+01:00</time>
      </trkpt>
      <trkpt lat="45.75911" lon="5.5203">
        <ele>422</ele>
        <time>2019-12-19T11:39:38+01:00</time>
      </trkpt>
      <trkpt lat="45.75921" lon="5.5206">
        <ele>422</ele>
        <time>2019-12-19T11:39:56+01:00</time>
      </trkpt>
      <trkpt lat="45.75935" lon="5.52086">
        <ele>422</ele>
        <time>2019-12-19T11:40:14+01:00</time>
      </trkpt>
      <trkpt lat="45.75947" lon="5.52114">
        <ele>422</ele>
        <time>2019-12-19T11:40:31+01:00</time>
      </trkpt>
      <trkpt lat="45.75953" lon="5.52146">
        <ele>423</ele>
        <time>2019-12-19T11:40:49+01:00</time>
      </trkpt>
      <trkpt lat="45.75961" lon="5.52177">
        <ele>424</ele>
        <time>2019-12-19T11:41:07+01:00</time>
      </trkpt>
      <trkpt lat="45.75973" lon="5.52205">
        <ele>425</ele>
        <time>2019-12-19T11:41:26+01:00</time>
      </trkpt>
      <trkpt lat="45.75985" lon="5.52235">
        <ele>426</ele>
        <time>2019-12-19T11:41:43+01:00</time>
      </trkpt>
      <trkpt lat="45.75987" lon="5.52267">
        <ele>427</ele>
        <time>2019-12-19T11:42:03+01:00</time>
      </trkpt>
      <trkpt lat="45.76001" lon="5.52293">
        <ele>427</ele>
        <time>2019-12-19T11:42:42+01:00</time>
      </trkpt>
      <trkpt lat="45.7601" lon="5.52323">
        <ele>428</ele>
        <time>2019-12-19T11:42:58+01:00</time>
      </trkpt>
      <trkpt lat="45.76016" lon="5.52354">
        <ele>428</ele>
        <time>2019-12-19T11:43:18+01:00</time>
      </trkpt>
      <trkpt lat="45.76028" lon="5.52383">
        <ele>429</ele>
        <time>2019-12-19T11:43:36+01:00</time>
      </trkpt>
      <trkpt lat="45.76039" lon="5.52412">
        <ele>431</ele>
        <time>2019-12-19T11:43:55+01:00</time>
      </trkpt>
      <trkpt lat="45.76049" lon="5.52442">
        <ele>433</ele>
        <time>2019-12-19T11:44:21+01:00</time>
      </trkpt>
      <trkpt lat="45.76055" lon="5.52473">
        <ele>435</ele>
        <time>2019-12-19T11:44:40+01:00</time>
      </trkpt>
      <trkpt lat="45.76059" lon="5.52505">
        <ele>438</ele>
        <time>2019-12-19T11:45:00+01:00</time>
      </trkpt>
      <trkpt lat="45.76061" lon="5.52538">
        <ele>440</ele>
        <time>2019-12-19T11:45:27+01:00</time>
      </trkpt>
      <trkpt lat="45.76064" lon="5.52571">
        <ele>443</ele>
        <time>2019-12-19T11:45:49+01:00</time>
      </trkpt>
      <trkpt lat="45.76065" lon="5.52605">
        <ele>446</ele>
        <time>2019-12-19T11:46:10+01:00</time>
      </trkpt>
      <trkpt lat="45.76072" lon="5.5262">
        <ele>448</ele>
        <time>2019-12-19T11:46:31+01:00</time>
      </trkpt>
      <trkpt lat="45.76093" lon="5.52607">
        <ele>449</ele>
        <time>2019-12-19T11:49:07+01:00</time>
      </trkpt>
      <trkpt lat="45.76114" lon="5.52602">
        <ele>450</ele>
        <time>2019-12-19T11:49:24+01:00</time>
      </trkpt>
      <trkpt lat="45.76131" lon="5.52586">
        <ele>452</ele>
        <time>2019-12-19T11:49:56+01:00</time>
      </trkpt>
      <trkpt lat="45.76148" lon="5.52563">
        <ele>458</ele>
        <time>2019-12-19T11:50:31+01:00</time>
      </trkpt>
      <trkpt lat="45.76171" lon="5.52559">
        <ele>464</ele>
        <time>2019-12-19T11:51:05+01:00</time>
      </trkpt>
      <trkpt lat="45.76194" lon="5.52554">
        <ele>470</ele>
        <time>2019-12-19T11:51:45+01:00</time>
      </trkpt>
      <trkpt lat="45.76215" lon="5.52545">
        <ele>477</ele>
        <time>2019-12-19T11:52:16+01:00</time>
      </trkpt>
      <trkpt lat="45.76238" lon="5.52521">
        <ele>484</ele>
      </trkpt>
      <trkpt lat="45.76263" lon="5.52517">
        <ele>493</ele>
        <time>2019-12-19T11:52:47+01:00</time>
      </trkpt>
      <trkpt lat="45.76237" lon="5.52547">
        <ele>487</ele>
        <time>2019-12-19T11:53:53+01:00</time>
      </trkpt>
      <trkpt lat="45.76212" lon="5.52573">
        <ele>480</ele>
        <time>2019-12-19T11:54:13+01:00</time>
      </trkpt>
      <trkpt lat="45.76194" lon="5.52602">
        <ele>478</ele>
        <time>2019-12-19T11:54:29+01:00</time>
      </trkpt>
      <trkpt lat="45.76196" lon="5.52642">
        <ele>477</ele>
        <time>2019-12-19T11:55:02+01:00</time>
      </trkpt>
      <trkpt lat="45.7621" lon="5.52672">
        <ele>480</ele>
        <time>2019-12-19T11:55:15+01:00</time>
      </trkpt>
      <trkpt lat="45.76221" lon="5.52701">
        <ele>483</ele>
        <time>2019-12-19T11:55:35+01:00</time>
      </trkpt>
      <trkpt lat="45.76227" lon="5.52736">
        <ele>482</ele>
        <time>2019-12-19T11:55:53+01:00</time>
      </trkpt>
      <trkpt lat="45.76242" lon="5.52769">
        <ele>482</ele>
        <time>2019-12-19T11:56:13+01:00</time>
      </trkpt>
      <trkpt lat="45.76248" lon="5.5279">
        <ele>481</ele>
        <time>2019-12-19T11:56:29+01:00</time>
      </trkpt>
      <trkpt lat="45.76247" lon="5.5282">
        <ele>478</ele>
        <time>2019-12-19T11:56:43+01:00</time>
      </trkpt>
      <trkpt lat="45.76257" lon="5.5285">
        <ele>479</ele>
        <time>2019-12-19T11:57:04+01:00</time>
      </trkpt>
      <trkpt lat="45.76265" lon="5.52872">
        <ele>480</ele>
        <time>2019-12-19T11:57:34+01:00</time>
      </trkpt>
      <trkpt lat="45.76248" lon="5.52892">
        <ele>480</ele>
        <time>2019-12-19T11:57:49+01:00</time>
      </trkpt>
      <trkpt lat="45.7621" lon="5.5288">
        <ele>478</ele>
        <time>2019-12-19T11:58:15+01:00</time>
      </trkpt>
      <trkpt lat="45.76198" lon="5.52853">
        <ele>477</ele>
        <time>2019-12-19T11:58:27+01:00</time>
      </trkpt>
      <trkpt lat="45.76187" lon="5.52836">
        <ele>477</ele>
        <time>2019-12-19T11:58:44+01:00</time>
      </trkpt>
      <trkpt lat="45.76188" lon="5.52858">
        <ele>479</ele>
        <time>2019-12-19T11:59:24+01:00</time>
      </trkpt>
      <trkpt lat="45.7617" lon="5.52877">
        <ele>483</ele>
        <time>2019-12-19T11:59:43+01:00</time>
        <extensions>
          <visugpx:TrkExtension xmlns:visugpx="https://www.visugpx.com/editgpx/">
            <visugpx:node>2</visugpx:node>
            </visugpx:TrkExtension>
        </extensions>
      </trkpt>
      <trkpt lat="45.76167" lon="5.5288">
        <ele>486.3</ele>
      </trkpt>
      <trkpt lat="45.76155" lon="5.52887">
        <ele>487.7</ele>
      </trkpt>
      <trkpt lat="45.76145" lon="5.52894">
        <ele>489.5</ele>
      </trkpt>
      <trkpt lat="45.76139" lon="5.52899">
        <ele>490.7</ele>
      </trkpt>
      <trkpt lat="45.76136" lon="5.52906">
        <ele>491.7</ele>
      </trkpt>
      <trkpt lat="45.76136" lon="5.52916">
        <ele>492.4</ele>
      </trkpt>
      <trkpt lat="45.76147" lon="5.52969">
        <ele>497.8</ele>
      </trkpt>
      <trkpt lat="45.76143" lon="5.52974">
        <ele>499.4</ele>
        <extensions>
          <visugpx:TrkExtension xmlns:visugpx="https://www.visugpx.com/editgpx/">
            <visugpx:node>3</visugpx:node>
            </visugpx:TrkExtension>
        </extensions>
      </trkpt>
      <trkpt lat="45.76116" lon="5.53004">
        <ele>511.3</ele>
      </trkpt>
      <trkpt lat="45.76114" lon="5.53011">
        <ele>513.1</ele>
      </trkpt>
      <trkpt lat="45.76112" lon="5.53034">
        <ele>517.2</ele>
      </trkpt>
      <trkpt lat="45.7611" lon="5.53041">
        <ele>518</ele>
      </trkpt>
      <trkpt lat="45.76097" lon="5.53057">
        <ele>521.6</ele>
      </trkpt>
      <trkpt lat="45.76076" lon="5.53088">
        <ele>527.6</ele>
      </trkpt>
      <trkpt lat="45.76061" lon="5.53101">
        <ele>531</ele>
      </trkpt>
      <trkpt lat="45.76045" lon="5.53115">
        <ele>534.8</ele>
      </trkpt>
      <trkpt lat="45.75988" lon="5.53147">
        <ele>550.5</ele>
      </trkpt>
      <trkpt lat="45.7598" lon="5.53154">
        <ele>553.6</ele>
      </trkpt>
      <trkpt lat="45.75934" lon="5.53202">
        <ele>574.3</ele>
      </trkpt>
      <trkpt lat="45.75921" lon="5.53213">
        <ele>577.9</ele>
      </trkpt>
      <trkpt lat="45.75908" lon="5.53219">
        <ele>580.5</ele>
      </trkpt>
      <trkpt lat="45.7586" lon="5.5323">
        <ele>593.3</ele>
      </trkpt>
      <trkpt lat="45.75854" lon="5.53233">
        <ele>595.8</ele>
      </trkpt>
      <trkpt lat="45.75833" lon="5.53265">
        <ele>608.3</ele>
      </trkpt>
      <trkpt lat="45.7583" lon="5.53271">
        <ele>610.5</ele>
      </trkpt>
      <trkpt lat="45.75828" lon="5.53299">
        <ele>616.9</ele>
      </trkpt>
      <trkpt lat="45.75831" lon="5.53316">
        <ele>620.2</ele>
      </trkpt>
      <trkpt lat="45.75828" lon="5.53331">
        <ele>623</ele>
      </trkpt>
      <trkpt lat="45.75837" lon="5.53353">
        <ele>628.3</ele>
      </trkpt>
      <trkpt lat="45.75854" lon="5.53357">
        <ele>629.7</ele>
      </trkpt>
      <trkpt lat="45.75869" lon="5.53371">
        <ele>632.1</ele>
      </trkpt>
      <trkpt lat="45.75874" lon="5.53392">
        <ele>636.2</ele>
      </trkpt>
      <trkpt lat="45.7589" lon="5.53405">
        <ele>638.5</ele>
      </trkpt>
      <trkpt lat="45.75901" lon="5.53416">
        <ele>640.8</ele>
      </trkpt>
      <trkpt lat="45.75909" lon="5.53427">
        <ele>643.6</ele>
      </trkpt>
      <trkpt lat="45.75913" lon="5.53438">
        <ele>646.4</ele>
      </trkpt>
      <trkpt lat="45.75917" lon="5.53449">
        <ele>648.9</ele>
      </trkpt>
      <trkpt lat="45.75917" lon="5.53456">
        <ele>650.4</ele>
      </trkpt>
      <trkpt lat="45.75915" lon="5.53467">
        <ele>653</ele>
      </trkpt>
      <trkpt lat="45.75912" lon="5.53481">
        <ele>656.2</ele>
      </trkpt>
      <trkpt lat="45.75908" lon="5.53487">
        <ele>657.7</ele>
      </trkpt>
      <trkpt lat="45.75907" lon="5.53491">
        <ele>658.5</ele>
      </trkpt>
      <trkpt lat="45.75908" lon="5.53499">
        <ele>660.1</ele>
      </trkpt>
      <trkpt lat="45.75908" lon="5.5351">
        <ele>662.4</ele>
      </trkpt>
      <trkpt lat="45.75906" lon="5.53528">
        <ele>666</ele>
        <extensions>
          <visugpx:TrkExtension xmlns:visugpx="https://www.visugpx.com/editgpx/">
            <visugpx:node>7</visugpx:node>
            </visugpx:TrkExtension>
        </extensions>
      </trkpt>
      <trkpt lat="45.75907" lon="5.53535">
        <ele>667.4</ele>
      </trkpt>
      <trkpt lat="45.75904" lon="5.53565">
        <ele>672.9</ele>
      </trkpt>
      <trkpt lat="45.75897" lon="5.53574">
        <ele>675.1</ele>
      </trkpt>
      <trkpt lat="45.75893" lon="5.53579">
        <ele>676.5</ele>
      </trkpt>
      <trkpt lat="45.75887" lon="5.53589">
        <ele>678.9</ele>
      </trkpt>
      <trkpt lat="45.7588" lon="5.53598">
        <ele>680.2</ele>
      </trkpt>
      <trkpt lat="45.75874" lon="5.53606">
        <ele>681.4</ele>
      </trkpt>
      <trkpt lat="45.75869" lon="5.53618">
        <ele>683.3</ele>
      </trkpt>
      <trkpt lat="45.75864" lon="5.5363">
        <ele>684.9</ele>
      </trkpt>
      <trkpt lat="45.75859" lon="5.53643">
        <ele>686.9</ele>
      </trkpt>
      <trkpt lat="45.75856" lon="5.53652">
        <ele>688.7</ele>
      </trkpt>
      <trkpt lat="45.75853" lon="5.53659">
        <ele>690.1</ele>
      </trkpt>
      <trkpt lat="45.75846" lon="5.53669">
        <ele>691.8</ele>
      </trkpt>
      <trkpt lat="45.75839" lon="5.53677">
        <ele>692.5</ele>
      </trkpt>
      <trkpt lat="45.75834" lon="5.53682">
        <ele>692.7</ele>
      </trkpt>
      <trkpt lat="45.75832" lon="5.53685">
        <ele>692.9</ele>
      </trkpt>
      <trkpt lat="45.7582" lon="5.53709">
        <ele>695.2</ele>
      </trkpt>
      <trkpt lat="45.75812" lon="5.53732">
        <ele>697.4</ele>
      </trkpt>
      <trkpt lat="45.75797" lon="5.53777">
        <ele>702.3</ele>
      </trkpt>
      <trkpt lat="45.75769" lon="5.53839">
        <ele>712</ele>
      </trkpt>
      <trkpt lat="45.75753" lon="5.53883">
        <ele>718.5</ele>
      </trkpt>
      <trkpt lat="45.75744" lon="5.53918">
        <ele>724.3</ele>
      </trkpt>
      <trkpt lat="45.75741" lon="5.53943">
        <ele>727.8</ele>
      </trkpt>
      <trkpt lat="45.75743" lon="5.5397">
        <ele>731.5</ele>
      </trkpt>
      <trkpt lat="45.75746" lon="5.54008">
        <ele>735.1</ele>
      </trkpt>
      <trkpt lat="45.75744" lon="5.54059">
        <ele>740.6</ele>
      </trkpt>
      <trkpt lat="45.75754" lon="5.54145">
        <ele>747</ele>
      </trkpt>
      <trkpt lat="45.75757" lon="5.54172">
        <ele>748.5</ele>
      </trkpt>
      <trkpt lat="45.75757" lon="5.54189">
        <ele>750.2</ele>
      </trkpt>
      <trkpt lat="45.75752" lon="5.54207">
        <ele>752</ele>
      </trkpt>
      <trkpt lat="45.75745" lon="5.54222">
        <ele>753.4</ele>
      </trkpt>
      <trkpt lat="45.75743" lon="5.54242">
        <ele>755.9</ele>
      </trkpt>
      <trkpt lat="45.75753" lon="5.54296">
        <ele>763.5</ele>
      </trkpt>
      <trkpt lat="45.75758" lon="5.54321">
        <ele>767.8</ele>
      </trkpt>
      <trkpt lat="45.75764" lon="5.54343">
        <ele>772.1</ele>
      </trkpt>
      <trkpt lat="45.75769" lon="5.54416">
        <ele>780.4</ele>
      </trkpt>
      <trkpt lat="45.75771" lon="5.54424">
        <ele>781.1</ele>
      </trkpt>
      <trkpt lat="45.75776" lon="5.54438">
        <ele>783.1</ele>
      </trkpt>
      <trkpt lat="45.7579" lon="5.54481">
        <ele>785.5</ele>
      </trkpt>
      <trkpt lat="45.75792" lon="5.54495">
        <ele>786.7</ele>
      </trkpt>
      <trkpt lat="45.75788" lon="5.54517">
        <ele>789.4</ele>
      </trkpt>
      <trkpt lat="45.75785" lon="5.54539">
        <ele>792.7</ele>
      </trkpt>
      <trkpt lat="45.75783" lon="5.54562">
        <ele>796</ele>
      </trkpt>
      <trkpt lat="45.75783" lon="5.54584">
        <ele>798.1</ele>
      </trkpt>
      <trkpt lat="45.75784" lon="5.54593">
        <ele>799.7</ele>
      </trkpt>
      <trkpt lat="45.75781" lon="5.54602">
        <ele>801.3</ele>
      </trkpt>
      <trkpt lat="45.7577" lon="5.54621">
        <ele>803.3</ele>
      </trkpt>
      <trkpt lat="45.75746" lon="5.54666">
        <ele>809.1</ele>
      </trkpt>
      <trkpt lat="45.75728" lon="5.54687">
        <ele>813.4</ele>
      </trkpt>
      <trkpt lat="45.7571" lon="5.54704">
        <ele>816.6</ele>
      </trkpt>
      <trkpt lat="45.75692" lon="5.54722">
        <ele>820.3</ele>
      </trkpt>
      <trkpt lat="45.75684" lon="5.54728">
        <ele>820.2</ele>
      </trkpt>
      <trkpt lat="45.75677" lon="5.54737">
        <ele>820.9</ele>
      </trkpt>
      <trkpt lat="45.75669" lon="5.5475">
        <ele>821.8</ele>
      </trkpt>
      <trkpt lat="45.75661" lon="5.54767">
        <ele>823</ele>
      </trkpt>
      <trkpt lat="45.75648" lon="5.54802">
        <ele>823</ele>
      </trkpt>
      <trkpt lat="45.7564" lon="5.54817">
        <ele>822.9</ele>
      </trkpt>
      <trkpt lat="45.75631" lon="5.54829">
        <ele>823.2</ele>
      </trkpt>
      <trkpt lat="45.75621" lon="5.54836">
        <ele>823</ele>
      </trkpt>
      <trkpt lat="45.75617" lon="5.54842">
        <ele>823.5</ele>
      </trkpt>
      <trkpt lat="45.75612" lon="5.54845">
        <ele>823.3</ele>
      </trkpt>
      <trkpt lat="45.75603" lon="5.54855">
        <ele>822.9</ele>
      </trkpt>
      <trkpt lat="45.75587" lon="5.54874">
        <ele>821.8</ele>
      </trkpt>
      <trkpt lat="45.75574" lon="5.54888">
        <ele>822.5</ele>
      </trkpt>
      <trkpt lat="45.75551" lon="5.54896">
        <ele>823.7</ele>
      </trkpt>
      <trkpt lat="45.75534" lon="5.54899">
        <ele>825.6</ele>
      </trkpt>
      <trkpt lat="45.75531" lon="5.54901">
        <ele>826.1</ele>
        <extensions>
          <visugpx:TrkExtension xmlns:visugpx="https://www.visugpx.com/editgpx/">
            <visugpx:node>8</visugpx:node>
            </visugpx:TrkExtension>
        </extensions>
      </trkpt>
      <trkpt lat="45.75525" lon="5.54906">
        <ele>826.9</ele>
      </trkpt>
      <trkpt lat="45.75522" lon="5.5491">
        <ele>827.4</ele>
      </trkpt>
      <trkpt lat="45.75518" lon="5.54912">
        <ele>827.6</ele>
      </trkpt>
      <trkpt lat="45.75486" lon="5.54917">
        <ele>829.5</ele>
      </trkpt>
      <trkpt lat="45.75453" lon="5.54927">
        <ele>832.8</ele>
      </trkpt>
      <trkpt lat="45.75422" lon="5.54933">
        <ele>835.4</ele>
      </trkpt>
      <trkpt lat="45.75371" lon="5.5494">
        <ele>839.1</ele>
      </trkpt>
      <trkpt lat="45.75349" lon="5.54948">
        <ele>841.5</ele>
      </trkpt>
      <trkpt lat="45.75333" lon="5.54956">
        <ele>843</ele>
      </trkpt>
      <trkpt lat="45.75321" lon="5.54963">
        <ele>844.3</ele>
      </trkpt>
      <trkpt lat="45.75306" lon="5.54979">
        <ele>846</ele>
      </trkpt>
      <trkpt lat="45.75295" lon="5.54996">
        <ele>846.8</ele>
      </trkpt>
      <trkpt lat="45.75288" lon="5.5501">
        <ele>847.8</ele>
      </trkpt>
      <trkpt lat="45.75285" lon="5.55022">
        <ele>848.5</ele>
      </trkpt>
      <trkpt lat="45.75275" lon="5.55046">
        <ele>849.1</ele>
      </trkpt>
      <trkpt lat="45.75262" lon="5.55072">
        <ele>850.4</ele>
      </trkpt>
      <trkpt lat="45.75212" lon="5.55153">
        <ele>852.4</ele>
      </trkpt>
      <trkpt lat="45.75175" lon="5.55197">
        <ele>852</ele>
      </trkpt>
      <trkpt lat="45.75165" lon="5.55212">
        <ele>852.1</ele>
      </trkpt>
      <trkpt lat="45.75157" lon="5.55229">
        <ele>852.6</ele>
      </trkpt>
      <trkpt lat="45.75144" lon="5.55261">
        <ele>852.5</ele>
      </trkpt>
      <trkpt lat="45.75126" lon="5.55312">
        <ele>852.9</ele>
      </trkpt>
      <trkpt lat="45.75119" lon="5.55332">
        <ele>853</ele>
      </trkpt>
      <trkpt lat="45.75112" lon="5.55361">
        <ele>854</ele>
      </trkpt>
      <trkpt lat="45.75093" lon="5.55385">
        <ele>855.6</ele>
      </trkpt>
      <trkpt lat="45.75079" lon="5.55387">
        <ele>856.5</ele>
      </trkpt>
      <trkpt lat="45.7507" lon="5.55401">
        <ele>857.6</ele>
      </trkpt>
      <trkpt lat="45.75062" lon="5.55419">
        <ele>859.1</ele>
        <extensions>
          <visugpx:TrkExtension xmlns:visugpx="https://www.visugpx.com/editgpx/">
            <visugpx:node>11</visugpx:node>
            </visugpx:TrkExtension>
        </extensions>
      </trkpt>
      <trkpt lat="45.75055" lon="5.55436">
        <ele>860</ele>
      </trkpt>
      <trkpt lat="45.75049" lon="5.55454">
        <ele>860.6</ele>
      </trkpt>
      <trkpt lat="45.7504" lon="5.55473">
        <ele>861.7</ele>
      </trkpt>
      <trkpt lat="45.75048" lon="5.55516">
        <ele>863.7</ele>
      </trkpt>
      <trkpt lat="45.7506" lon="5.55561">
        <ele>865.7</ele>
      </trkpt>
      <trkpt lat="45.75068" lon="5.55604">
        <ele>869.1</ele>
      </trkpt>
      <trkpt lat="45.75077" lon="5.55642">
        <ele>872</ele>
      </trkpt>
      <trkpt lat="45.75091" lon="5.55684">
        <ele>877.9</ele>
      </trkpt>
      <trkpt lat="45.75104" lon="5.55715">
        <ele>881.8</ele>
      </trkpt>
      <trkpt lat="45.75123" lon="5.55747">
        <ele>887.9</ele>
      </trkpt>
      <trkpt lat="45.75146" lon="5.55779">
        <ele>893.9</ele>
      </trkpt>
      <trkpt lat="45.75184" lon="5.5583">
        <ele>904.1</ele>
      </trkpt>
      <trkpt lat="45.75214" lon="5.55872">
        <ele>906.7</ele>
      </trkpt>
      <trkpt lat="45.75228" lon="5.55901">
        <ele>905.9</ele>
      </trkpt>
      <trkpt lat="45.75225" lon="5.55907">
        <ele>906</ele>
      </trkpt>
      <trkpt lat="45.75224" lon="5.55912">
        <ele>906</ele>
      </trkpt>
      <trkpt lat="45.75226" lon="5.55921">
        <ele>906.2</ele>
      </trkpt>
      <trkpt lat="45.75231" lon="5.55928">
        <ele>906.4</ele>
      </trkpt>
      <trkpt lat="45.75237" lon="5.55935">
        <ele>906.7</ele>
      </trkpt>
      <trkpt lat="45.75243" lon="5.55944">
        <ele>907</ele>
      </trkpt>
      <trkpt lat="45.75252" lon="5.55965">
        <ele>907.6</ele>
      </trkpt>
      <trkpt lat="45.7526" lon="5.55975">
        <ele>907.4</ele>
      </trkpt>
      <trkpt lat="45.75267" lon="5.55984">
        <ele>907.4</ele>
      </trkpt>
      <trkpt lat="45.75274" lon="5.55996">
        <ele>907.2</ele>
      </trkpt>
      <trkpt lat="45.7528" lon="5.56014">
        <ele>905.8</ele>
      </trkpt>
      <trkpt lat="45.75282" lon="5.5603">
        <ele>904.3</ele>
      </trkpt>
      <trkpt lat="45.7528" lon="5.56048">
        <ele>903.7</ele>
      </trkpt>
      <trkpt lat="45.75278" lon="5.56063">
        <ele>903.4</ele>
      </trkpt>
      <trkpt lat="45.75277" lon="5.56085">
        <ele>902.2</ele>
      </trkpt>
      <trkpt lat="45.75278" lon="5.5612">
        <ele>899.9</ele>
      </trkpt>
      <trkpt lat="45.75276" lon="5.56154">
        <ele>900.1</ele>
      </trkpt>
      <trkpt lat="45.75273" lon="5.56172">
        <ele>900.5</ele>
      </trkpt>
      <trkpt lat="45.7527" lon="5.56188">
        <ele>901.1</ele>
      </trkpt>
      <trkpt lat="45.75265" lon="5.5622">
        <ele>902.3</ele>
      </trkpt>
      <trkpt lat="45.75258" lon="5.56263">
        <ele>902.7</ele>
      </trkpt>
      <trkpt lat="45.7525" lon="5.56288">
        <ele>903.3</ele>
      </trkpt>
      <trkpt lat="45.75245" lon="5.56299">
        <ele>903.1</ele>
      </trkpt>
      <trkpt lat="45.7524" lon="5.56307">
        <ele>902.9</ele>
      </trkpt>
      <trkpt lat="45.75231" lon="5.56315">
        <ele>902.4</ele>
      </trkpt>
      <trkpt lat="45.75218" lon="5.56326">
        <ele>901</ele>
      </trkpt>
      <trkpt lat="45.75212" lon="5.56333">
        <ele>900.2</ele>
      </trkpt>
      <trkpt lat="45.75204" lon="5.56342">
        <ele>900.4</ele>
      </trkpt>
      <trkpt lat="45.75194" lon="5.56355">
        <ele>899.7</ele>
      </trkpt>
      <trkpt lat="45.75182" lon="5.5637">
        <ele>900.1</ele>
      </trkpt>
      <trkpt lat="45.75175" lon="5.56382">
        <ele>900</ele>
      </trkpt>
      <trkpt lat="45.75152" lon="5.5642">
        <ele>901.1</ele>
      </trkpt>
      <trkpt lat="45.75138" lon="5.56442">
        <ele>901.2</ele>
      </trkpt>
      <trkpt lat="45.7512" lon="5.56469">
        <ele>901.7</ele>
      </trkpt>
      <trkpt lat="45.75106" lon="5.56489">
        <ele>900.3</ele>
      </trkpt>
      <trkpt lat="45.75092" lon="5.56514">
        <ele>900.7</ele>
      </trkpt>
      <trkpt lat="45.75079" lon="5.56539">
        <ele>901.1</ele>
      </trkpt>
      <trkpt lat="45.75068" lon="5.56563">
        <ele>900.6</ele>
      </trkpt>
      <trkpt lat="45.75064" lon="5.56579">
        <ele>899.6</ele>
      </trkpt>
      <trkpt lat="45.75062" lon="5.56592">
        <ele>898.7</ele>
      </trkpt>
      <trkpt lat="45.75063" lon="5.56603">
        <ele>898</ele>
      </trkpt>
      <trkpt lat="45.75064" lon="5.56615">
        <ele>897.4</ele>
      </trkpt>
      <trkpt lat="45.75067" lon="5.56625">
        <ele>896.9</ele>
      </trkpt>
      <trkpt lat="45.75073" lon="5.56639">
        <ele>896</ele>
      </trkpt>
      <trkpt lat="45.75082" lon="5.56659">
        <ele>893.9</ele>
      </trkpt>
      <trkpt lat="45.7509" lon="5.56678">
        <ele>893</ele>
      </trkpt>
      <trkpt lat="45.75092" lon="5.56691">
        <ele>892.4</ele>
      </trkpt>
      <trkpt lat="45.75091" lon="5.56706">
        <ele>891.6</ele>
      </trkpt>
      <trkpt lat="45.75085" lon="5.56727">
        <ele>889.8</ele>
      </trkpt>
      <trkpt lat="45.75082" lon="5.56737">
        <ele>889.9</ele>
      </trkpt>
      <trkpt lat="45.75074" lon="5.56757">
        <ele>889.4</ele>
      </trkpt>
      <trkpt lat="45.75069" lon="5.56773">
        <ele>889.1</ele>
      </trkpt>
      <trkpt lat="45.7506" lon="5.56788">
        <ele>887.3</ele>
      </trkpt>
      <trkpt lat="45.75051" lon="5.56803">
        <ele>886.6</ele>
      </trkpt>
      <trkpt lat="45.75044" lon="5.56812">
        <ele>886.5</ele>
      </trkpt>
      <trkpt lat="45.75036" lon="5.5682">
        <ele>886.3</ele>
      </trkpt>
      <trkpt lat="45.7503" lon="5.56825">
        <ele>885.9</ele>
      </trkpt>
      <trkpt lat="45.75024" lon="5.56832">
        <ele>885.7</ele>
      </trkpt>
      <trkpt lat="45.7502" lon="5.56838">
        <ele>885.6</ele>
        <extensions>
          <visugpx:TrkExtension xmlns:visugpx="https://www.visugpx.com/editgpx/">
            <visugpx:node>12</visugpx:node>
            </visugpx:TrkExtension>
        </extensions>
      </trkpt>
      <trkpt lat="45.75024" lon="5.56832">
        <ele>885.7</ele>
      </trkpt>
      <trkpt lat="45.7503" lon="5.56825">
        <ele>885.9</ele>
      </trkpt>
      <trkpt lat="45.75025" lon="5.56816">
        <ele>885.2</ele>
      </trkpt>
      <trkpt lat="45.75026" lon="5.568">
        <ele>884.9</ele>
      </trkpt>
      <trkpt lat="45.75023" lon="5.56787">
        <ele>884.9</ele>
      </trkpt>
      <trkpt lat="45.7502" lon="5.56779">
        <ele>885</ele>
      </trkpt>
      <trkpt lat="45.75014" lon="5.56772">
        <ele>885.5</ele>
      </trkpt>
      <trkpt lat="45.75009" lon="5.56764">
        <ele>886.3</ele>
      </trkpt>
      <trkpt lat="45.75005" lon="5.56764">
        <ele>886.4</ele>
      </trkpt>
      <trkpt lat="45.74997" lon="5.5677">
        <ele>886.4</ele>
      </trkpt>
      <trkpt lat="45.74987" lon="5.56777">
        <ele>887.4</ele>
      </trkpt>
      <trkpt lat="45.74977" lon="5.56788">
        <ele>888.5</ele>
      </trkpt>
      <trkpt lat="45.74967" lon="5.56805">
        <ele>889.2</ele>
      </trkpt>
      <trkpt lat="45.74957" lon="5.56818">
        <ele>889.9</ele>
      </trkpt>
      <trkpt lat="45.7495" lon="5.56827">
        <ele>890</ele>
      </trkpt>
      <trkpt lat="45.74944" lon="5.56836">
        <ele>889.8</ele>
      </trkpt>
      <trkpt lat="45.74929" lon="5.56856">
        <ele>891</ele>
      </trkpt>
      <trkpt lat="45.74918" lon="5.56863">
        <ele>892.5</ele>
      </trkpt>
      <trkpt lat="45.749" lon="5.56873">
        <ele>895.3</ele>
      </trkpt>
      <trkpt lat="45.74884" lon="5.56896">
        <ele>896.2</ele>
      </trkpt>
      <trkpt lat="45.74863" lon="5.56924">
        <ele>896.8</ele>
      </trkpt>
      <trkpt lat="45.74848" lon="5.56949">
        <ele>898.4</ele>
      </trkpt>
      <trkpt lat="45.74841" lon="5.56958">
        <ele>899.8</ele>
        <extensions>
          <visugpx:TrkExtension xmlns:visugpx="https://www.visugpx.com/editgpx/">
            <visugpx:node>13</visugpx:node>
            </visugpx:TrkExtension>
        </extensions>
      </trkpt>
      <trkpt lat="45.74837" lon="5.56963">
        <ele>900.6</ele>
      </trkpt>
      <trkpt lat="45.74836" lon="5.56954">
        <ele>901.5</ele>
      </trkpt>
      <trkpt lat="45.74839" lon="5.56933">
        <ele>902.3</ele>
      </trkpt>
      <trkpt lat="45.74846" lon="5.56894">
        <ele>905</ele>
      </trkpt>
      <trkpt lat="45.74846" lon="5.56881">
        <ele>906.7</ele>
      </trkpt>
      <trkpt lat="45.74845" lon="5.5687">
        <ele>908.2</ele>
      </trkpt>
      <trkpt lat="45.7484" lon="5.56829">
        <ele>912.3</ele>
      </trkpt>
      <trkpt lat="45.74839" lon="5.56825">
        <ele>912.4</ele>
      </trkpt>
      <trkpt lat="45.74832" lon="5.56807">
        <ele>912.2</ele>
      </trkpt>
      <trkpt lat="45.74835" lon="5.56782">
        <ele>909.7</ele>
      </trkpt>
      <trkpt lat="45.74837" lon="5.56737">
        <ele>905.4</ele>
      </trkpt>
      <trkpt lat="45.74839" lon="5.5671">
        <ele>902.7</ele>
      </trkpt>
      <trkpt lat="45.74841" lon="5.5669">
        <ele>900.7</ele>
      </trkpt>
      <trkpt lat="45.74844" lon="5.56669">
        <ele>899.3</ele>
      </trkpt>
      <trkpt lat="45.74849" lon="5.56635">
        <ele>896.3</ele>
      </trkpt>
      <trkpt lat="45.74851" lon="5.56625">
        <ele>894.9</ele>
        <extensions>
          <visugpx:TrkExtension xmlns:visugpx="https://www.visugpx.com/editgpx/">
            <visugpx:node>14</visugpx:node>
            </visugpx:TrkExtension>
        </extensions>
      </trkpt>
      <trkpt lat="45.74851" lon="5.56622">
        <ele>894.2</ele>
      </trkpt>
      <trkpt lat="45.74818" lon="5.5664">
        <ele>884.5</ele>
      </trkpt>
      <trkpt lat="45.74772" lon="5.56669">
        <ele>878.8</ele>
      </trkpt>
      <trkpt lat="45.74728" lon="5.56695">
        <ele>878.2</ele>
      </trkpt>
      <trkpt lat="45.74699" lon="5.56698">
        <ele>871.1</ele>
      </trkpt>
      <trkpt lat="45.74675" lon="5.56702">
        <ele>868.6</ele>
      </trkpt>
      <trkpt lat="45.74637" lon="5.56692">
        <ele>859.7</ele>
      </trkpt>
      <trkpt lat="45.74614" lon="5.56694">
        <ele>857.2</ele>
      </trkpt>
      <trkpt lat="45.74601" lon="5.56697">
        <ele>855.9</ele>
      </trkpt>
      <trkpt lat="45.74584" lon="5.5671">
        <ele>856.6</ele>
      </trkpt>
      <trkpt lat="45.74555" lon="5.56721">
        <ele>855.6</ele>
      </trkpt>
      <trkpt lat="45.74521" lon="5.56741">
        <ele>851.6</ele>
      </trkpt>
      <trkpt lat="45.74497" lon="5.56753">
        <ele>849</ele>
      </trkpt>
      <trkpt lat="45.74485" lon="5.56756">
        <ele>846.9</ele>
      </trkpt>
      <trkpt lat="45.74451" lon="5.56766">
        <ele>840.9</ele>
      </trkpt>
      <trkpt lat="45.74426" lon="5.56772">
        <ele>836.7</ele>
      </trkpt>
      <trkpt lat="45.74412" lon="5.56771">
        <ele>834.2</ele>
      </trkpt>
      <trkpt lat="45.74385" lon="5.56762">
        <ele>829.4</ele>
      </trkpt>
      <trkpt lat="45.74317" lon="5.56692">
        <ele>806.5</ele>
      </trkpt>
      <trkpt lat="45.74312" lon="5.56697">
        <ele>806.5</ele>
        <extensions>
          <visugpx:TrkExtension xmlns:visugpx="https://www.visugpx.com/editgpx/">
            <visugpx:node>15</visugpx:node>
            </visugpx:TrkExtension>
        </extensions>
      </trkpt>
      <trkpt lat="45.74305" lon="5.56698">
        <ele>804.8</ele>
      </trkpt>
      <trkpt lat="45.74298" lon="5.56701">
        <ele>805</ele>
      </trkpt>
      <trkpt lat="45.74291" lon="5.56701">
        <ele>804.3</ele>
      </trkpt>
      <trkpt lat="45.7429" lon="5.56701">
        <ele>804.2</ele>
      </trkpt>
      <trkpt lat="45.74283" lon="5.56702">
        <ele>803.9</ele>
      </trkpt>
      <trkpt lat="45.74276" lon="5.567">
        <ele>803.4</ele>
      </trkpt>
      <trkpt lat="45.74269" lon="5.56697">
        <ele>804.6</ele>
      </trkpt>
      <trkpt lat="45.74264" lon="5.56692">
        <ele>804.8</ele>
      </trkpt>
      <trkpt lat="45.74261" lon="5.56684">
        <ele>803.6</ele>
      </trkpt>
      <trkpt lat="45.74256" lon="5.56671">
        <ele>801.5</ele>
      </trkpt>
      <trkpt lat="45.7425" lon="5.5665">
        <ele>799.6</ele>
      </trkpt>
      <trkpt lat="45.74245" lon="5.56633">
        <ele>799</ele>
      </trkpt>
      <trkpt lat="45.74242" lon="5.56621">
        <ele>797.6</ele>
      </trkpt>
      <trkpt lat="45.74239" lon="5.56605">
        <ele>795.9</ele>
      </trkpt>
      <trkpt lat="45.74237" lon="5.56586">
        <ele>793.4</ele>
      </trkpt>
      <trkpt lat="45.74235" lon="5.56563">
        <ele>790.9</ele>
      </trkpt>
      <trkpt lat="45.74234" lon="5.56541">
        <ele>788.9</ele>
      </trkpt>
      <trkpt lat="45.74233" lon="5.56521">
        <ele>787.4</ele>
      </trkpt>
      <trkpt lat="45.74232" lon="5.56502">
        <ele>785.7</ele>
      </trkpt>
      <trkpt lat="45.74227" lon="5.56457">
        <ele>782.4</ele>
      </trkpt>
      <trkpt lat="45.74224" lon="5.56443">
        <ele>780.9</ele>
      </trkpt>
      <trkpt lat="45.74221" lon="5.56436">
        <ele>779.5</ele>
      </trkpt>
      <trkpt lat="45.74216" lon="5.56433">
        <ele>778.4</ele>
      </trkpt>
      <trkpt lat="45.74199" lon="5.56436">
        <ele>778.5</ele>
      </trkpt>
      <trkpt lat="45.7418" lon="5.56432">
        <ele>778.2</ele>
      </trkpt>
      <trkpt lat="45.74166" lon="5.56418">
        <ele>775.7</ele>
      </trkpt>
      <trkpt lat="45.74156" lon="5.56393">
        <ele>775.5</ele>
      </trkpt>
      <trkpt lat="45.74152" lon="5.56362">
        <ele>773.6</ele>
      </trkpt>
      <trkpt lat="45.74156" lon="5.56331">
        <ele>769.8</ele>
      </trkpt>
      <trkpt lat="45.7416" lon="5.56302">
        <ele>768.2</ele>
      </trkpt>
      <trkpt lat="45.74164" lon="5.5628">
        <ele>768.3</ele>
      </trkpt>
      <trkpt lat="45.74171" lon="5.56265">
        <ele>767.3</ele>
      </trkpt>
      <trkpt lat="45.74175" lon="5.56258">
        <ele>766.5</ele>
      </trkpt>
      <trkpt lat="45.74177" lon="5.56248">
        <ele>766.8</ele>
      </trkpt>
      <trkpt lat="45.74178" lon="5.56243">
        <ele>765.7</ele>
      </trkpt>
      <trkpt lat="45.74177" lon="5.56237">
        <ele>765.4</ele>
      </trkpt>
      <trkpt lat="45.74175" lon="5.56233">
        <ele>765.5</ele>
      </trkpt>
      <trkpt lat="45.74165" lon="5.56231">
        <ele>768.3</ele>
      </trkpt>
      <trkpt lat="45.74157" lon="5.56227">
        <ele>770.8</ele>
      </trkpt>
      <trkpt lat="45.74151" lon="5.5622">
        <ele>771.8</ele>
      </trkpt>
      <trkpt lat="45.74147" lon="5.56212">
        <ele>772.2</ele>
      </trkpt>
      <trkpt lat="45.74146" lon="5.56198">
        <ele>770.1</ele>
      </trkpt>
      <trkpt lat="45.74144" lon="5.56175">
        <ele>770</ele>
      </trkpt>
      <trkpt lat="45.74142" lon="5.56122">
        <ele>770.7</ele>
      </trkpt>
      <trkpt lat="45.74143" lon="5.56099">
        <ele>769.3</ele>
      </trkpt>
      <trkpt lat="45.74141" lon="5.5608">
        <ele>770.3</ele>
      </trkpt>
      <trkpt lat="45.74139" lon="5.56062">
        <ele>771.2</ele>
      </trkpt>
      <trkpt lat="45.74139" lon="5.5605">
        <ele>771.5</ele>
      </trkpt>
      <trkpt lat="45.74147" lon="5.55995">
        <ele>769.9</ele>
      </trkpt>
      <trkpt lat="45.74147" lon="5.55982">
        <ele>768</ele>
      </trkpt>
      <trkpt lat="45.74146" lon="5.55973">
        <ele>767.3</ele>
      </trkpt>
      <trkpt lat="45.74145" lon="5.55966">
        <ele>767.2</ele>
      </trkpt>
      <trkpt lat="45.74143" lon="5.55963">
        <ele>768</ele>
      </trkpt>
      <trkpt lat="45.74141" lon="5.55962">
        <ele>768.9</ele>
      </trkpt>
      <trkpt lat="45.74136" lon="5.55962">
        <ele>769.5</ele>
      </trkpt>
      <trkpt lat="45.74125" lon="5.55967">
        <ele>769.1</ele>
      </trkpt>
      <trkpt lat="45.74094" lon="5.55989">
        <ele>768.8</ele>
      </trkpt>
      <trkpt lat="45.74063" lon="5.56018">
        <ele>766.1</ele>
      </trkpt>
      <trkpt lat="45.74047" lon="5.56034">
        <ele>764.6</ele>
      </trkpt>
      <trkpt lat="45.74036" lon="5.56047">
        <ele>763.7</ele>
      </trkpt>
      <trkpt lat="45.74024" lon="5.5606">
        <ele>762.2</ele>
      </trkpt>
      <trkpt lat="45.74015" lon="5.56071">
        <ele>762.4</ele>
      </trkpt>
      <trkpt lat="45.74005" lon="5.56081">
        <ele>760.9</ele>
      </trkpt>
      <trkpt lat="45.73995" lon="5.56094">
        <ele>759.9</ele>
      </trkpt>
      <trkpt lat="45.73984" lon="5.56108">
        <ele>758.9</ele>
      </trkpt>
      <trkpt lat="45.73975" lon="5.5612">
        <ele>757.7</ele>
      </trkpt>
      <trkpt lat="45.73967" lon="5.5613">
        <ele>756.3</ele>
      </trkpt>
      <trkpt lat="45.73953" lon="5.56147">
        <ele>755</ele>
      </trkpt>
      <trkpt lat="45.73945" lon="5.56157">
        <ele>753.8</ele>
      </trkpt>
      <trkpt lat="45.73939" lon="5.56166">
        <ele>753.1</ele>
      </trkpt>
      <trkpt lat="45.73927" lon="5.56185">
        <ele>752.5</ele>
      </trkpt>
      <trkpt lat="45.73919" lon="5.562">
        <ele>752.2</ele>
      </trkpt>
      <trkpt lat="45.73913" lon="5.56213">
        <ele>751.1</ele>
      </trkpt>
      <trkpt lat="45.73907" lon="5.56228">
        <ele>750</ele>
      </trkpt>
      <trkpt lat="45.73901" lon="5.56247">
        <ele>748.9</ele>
      </trkpt>
      <trkpt lat="45.73896" lon="5.56284">
        <ele>748.6</ele>
      </trkpt>
      <trkpt lat="45.73892" lon="5.5632">
        <ele>747.3</ele>
      </trkpt>
      <trkpt lat="45.73892" lon="5.56337">
        <ele>747.3</ele>
      </trkpt>
      <trkpt lat="45.73889" lon="5.56369">
        <ele>745.9</ele>
      </trkpt>
      <trkpt lat="45.73885" lon="5.56386">
        <ele>746.3</ele>
      </trkpt>
      <trkpt lat="45.73882" lon="5.56391">
        <ele>746.4</ele>
      </trkpt>
      <trkpt lat="45.73873" lon="5.56393">
        <ele>744.1</ele>
      </trkpt>
      <trkpt lat="45.73866" lon="5.56396">
        <ele>742.8</ele>
      </trkpt>
      <trkpt lat="45.73858" lon="5.56404">
        <ele>742.6</ele>
      </trkpt>
      <trkpt lat="45.7385" lon="5.56412">
        <ele>741.7</ele>
      </trkpt>
      <trkpt lat="45.73842" lon="5.56423">
        <ele>741.3</ele>
      </trkpt>
      <trkpt lat="45.73836" lon="5.56434">
        <ele>741.5</ele>
      </trkpt>
      <trkpt lat="45.73828" lon="5.56441">
        <ele>741.3</ele>
      </trkpt>
      <trkpt lat="45.73818" lon="5.56446">
        <ele>741.2</ele>
      </trkpt>
      <trkpt lat="45.73807" lon="5.56447">
        <ele>739.8</ele>
      </trkpt>
      <trkpt lat="45.73803" lon="5.56449">
        <ele>739.2</ele>
      </trkpt>
      <trkpt lat="45.73796" lon="5.56456">
        <ele>738.6</ele>
      </trkpt>
      <trkpt lat="45.73758" lon="5.56483">
        <ele>735.3</ele>
      </trkpt>
      <trkpt lat="45.73747" lon="5.56491">
        <ele>735</ele>
      </trkpt>
      <trkpt lat="45.73739" lon="5.56496">
        <ele>734.5</ele>
      </trkpt>
      <trkpt lat="45.73731" lon="5.56501">
        <ele>734</ele>
      </trkpt>
      <trkpt lat="45.73719" lon="5.56507">
        <ele>733.7</ele>
      </trkpt>
      <trkpt lat="45.73704" lon="5.5651">
        <ele>733.3</ele>
      </trkpt>
      <trkpt lat="45.7368" lon="5.56514">
        <ele>732.5</ele>
      </trkpt>
      <trkpt lat="45.73672" lon="5.56516">
        <ele>732.4</ele>
      </trkpt>
      <trkpt lat="45.73658" lon="5.56527">
        <ele>734.2</ele>
      </trkpt>
      <trkpt lat="45.73654" lon="5.5653">
        <ele>734.5</ele>
      </trkpt>
      <trkpt lat="45.73664" lon="5.56516">
        <ele>732.1</ele>
        <extensions>
          <visugpx:TrkExtension xmlns:visugpx="https://www.visugpx.com/editgpx/">
            <visugpx:node>16</visugpx:node>
            </visugpx:TrkExtension>
        </extensions>
      </trkpt>
      <trkpt lat="45.73673" lon="5.56504">
        <ele>729.3</ele>
      </trkpt>
      <trkpt lat="45.73689" lon="5.56482">
        <ele>726.1</ele>
      </trkpt>
      <trkpt lat="45.73704" lon="5.56463">
        <ele>722.1</ele>
      </trkpt>
      <trkpt lat="45.73716" lon="5.56449">
        <ele>718.9</ele>
      </trkpt>
      <trkpt lat="45.73723" lon="5.56429">
        <ele>714.8</ele>
      </trkpt>
      <trkpt lat="45.73723" lon="5.56401">
        <ele>711.3</ele>
      </trkpt>
      <trkpt lat="45.73717" lon="5.56379">
        <ele>709.7</ele>
      </trkpt>
      <trkpt lat="45.73713" lon="5.56363">
        <ele>707.9</ele>
      </trkpt>
      <trkpt lat="45.73708" lon="5.56345">
        <ele>704</ele>
      </trkpt>
      <trkpt lat="45.73699" lon="5.56328">
        <ele>699.9</ele>
      </trkpt>
      <trkpt lat="45.7369" lon="5.56326">
        <ele>698.7</ele>
      </trkpt>
      <trkpt lat="45.73676" lon="5.56327">
        <ele>696.2</ele>
      </trkpt>
      <trkpt lat="45.7366" lon="5.56331">
        <ele>694.1</ele>
      </trkpt>
      <trkpt lat="45.73651" lon="5.56336">
        <ele>693.8</ele>
      </trkpt>
      <trkpt lat="45.73641" lon="5.56337">
        <ele>691.4</ele>
      </trkpt>
      <trkpt lat="45.73624" lon="5.56337">
        <ele>686.5</ele>
      </trkpt>
      <trkpt lat="45.736" lon="5.56344">
        <ele>682.5</ele>
      </trkpt>
      <trkpt lat="45.73585" lon="5.56351">
        <ele>680.6</ele>
      </trkpt>
      <trkpt lat="45.73564" lon="5.56362">
        <ele>676</ele>
      </trkpt>
      <trkpt lat="45.73541" lon="5.56378">
        <ele>672.1</ele>
      </trkpt>
      <trkpt lat="45.73517" lon="5.56395">
        <ele>668.7</ele>
      </trkpt>
      <trkpt lat="45.73499" lon="5.56405">
        <ele>666</ele>
      </trkpt>
      <trkpt lat="45.73485" lon="5.56413">
        <ele>661.7</ele>
      </trkpt>
      <trkpt lat="45.73473" lon="5.56421">
        <ele>658.5</ele>
      </trkpt>
      <trkpt lat="45.73451" lon="5.56435">
        <ele>654.9</ele>
      </trkpt>
      <trkpt lat="45.73448" lon="5.56434">
        <ele>653.2</ele>
      </trkpt>
      <trkpt lat="45.73446" lon="5.56429">
        <ele>650.7</ele>
      </trkpt>
      <trkpt lat="45.73447" lon="5.56419">
        <ele>647.7</ele>
      </trkpt>
      <trkpt lat="45.73455" lon="5.56405">
        <ele>645.5</ele>
      </trkpt>
      <trkpt lat="45.73467" lon="5.5639">
        <ele>643.1</ele>
      </trkpt>
      <trkpt lat="45.73477" lon="5.56373">
        <ele>642.2</ele>
      </trkpt>
      <trkpt lat="45.73485" lon="5.56355">
        <ele>640.7</ele>
      </trkpt>
      <trkpt lat="45.73489" lon="5.56339">
        <ele>638.1</ele>
      </trkpt>
      <trkpt lat="45.73497" lon="5.56326">
        <ele>635.2</ele>
      </trkpt>
      <trkpt lat="45.7352" lon="5.56301">
        <ele>629.7</ele>
      </trkpt>
      <trkpt lat="45.73532" lon="5.56289">
        <ele>625.8</ele>
      </trkpt>
      <trkpt lat="45.73543" lon="5.56283">
        <ele>624.6</ele>
      </trkpt>
      <trkpt lat="45.73554" lon="5.56273">
        <ele>621.4</ele>
      </trkpt>
      <trkpt lat="45.73567" lon="5.5626">
        <ele>618.5</ele>
      </trkpt>
      <trkpt lat="45.73581" lon="5.56249">
        <ele>614.8</ele>
      </trkpt>
      <trkpt lat="45.73596" lon="5.56236">
        <ele>613.2</ele>
      </trkpt>
      <trkpt lat="45.73614" lon="5.56216">
        <ele>610.6</ele>
      </trkpt>
      <trkpt lat="45.73632" lon="5.56194">
        <ele>608.3</ele>
      </trkpt>
      <trkpt lat="45.73654" lon="5.56157">
        <ele>605.2</ele>
      </trkpt>
      <trkpt lat="45.73671" lon="5.5613">
        <ele>599.5</ele>
      </trkpt>
      <trkpt lat="45.73684" lon="5.56111">
        <ele>592.8</ele>
      </trkpt>
      <trkpt lat="45.73694" lon="5.56093">
        <ele>588.7</ele>
      </trkpt>
      <trkpt lat="45.73708" lon="5.56061">
        <ele>587.2</ele>
      </trkpt>
      <trkpt lat="45.73718" lon="5.56026">
        <ele>583.8</ele>
      </trkpt>
      <trkpt lat="45.73724" lon="5.55999">
        <ele>578.4</ele>
      </trkpt>
      <trkpt lat="45.73726" lon="5.55969">
        <ele>574.8</ele>
      </trkpt>
      <trkpt lat="45.73727" lon="5.55953">
        <ele>572.6</ele>
      </trkpt>
      <trkpt lat="45.73732" lon="5.55931">
        <ele>569.2</ele>
      </trkpt>
      <trkpt lat="45.73739" lon="5.55911">
        <ele>565.2</ele>
      </trkpt>
      <trkpt lat="45.73748" lon="5.55886">
        <ele>560.6</ele>
      </trkpt>
      <trkpt lat="45.73762" lon="5.55857">
        <ele>556.2</ele>
      </trkpt>
      <trkpt lat="45.73771" lon="5.55841">
        <ele>553.2</ele>
      </trkpt>
      <trkpt lat="45.73781" lon="5.55825">
        <ele>551.6</ele>
      </trkpt>
      <trkpt lat="45.73787" lon="5.55819">
        <ele>552</ele>
      </trkpt>
      <trkpt lat="45.7379" lon="5.5581">
        <ele>550.3</ele>
      </trkpt>
      <trkpt lat="45.73791" lon="5.55802">
        <ele>548.2</ele>
      </trkpt>
      <trkpt lat="45.73808" lon="5.55773">
        <ele>545.5</ele>
      </trkpt>
      <trkpt lat="45.73819" lon="5.5575">
        <ele>541.4</ele>
      </trkpt>
      <trkpt lat="45.73835" lon="5.55709">
        <ele>533.6</ele>
      </trkpt>
      <trkpt lat="45.73855" lon="5.55655">
        <ele>525.3</ele>
      </trkpt>
      <trkpt lat="45.73866" lon="5.55617">
        <ele>517.6</ele>
      </trkpt>
      <trkpt lat="45.73884" lon="5.55579">
        <ele>511.1</ele>
      </trkpt>
      <trkpt lat="45.73903" lon="5.55551">
        <ele>507.9</ele>
      </trkpt>
      <trkpt lat="45.7393" lon="5.55512">
        <ele>505.2</ele>
      </trkpt>
      <trkpt lat="45.73938" lon="5.55497">
        <ele>503.8</ele>
      </trkpt>
      <trkpt lat="45.73946" lon="5.55485">
        <ele>503.3</ele>
      </trkpt>
      <trkpt lat="45.73963" lon="5.55449">
        <ele>501.1</ele>
      </trkpt>
      <trkpt lat="45.73993" lon="5.55389">
        <ele>495.3</ele>
      </trkpt>
      <trkpt lat="45.74004" lon="5.55365">
        <ele>493.7</ele>
      </trkpt>
      <trkpt lat="45.74027" lon="5.55333">
        <ele>492.8</ele>
      </trkpt>
      <trkpt lat="45.74028" lon="5.55328">
        <ele>492.3</ele>
      </trkpt>
      <trkpt lat="45.74033" lon="5.55318">
        <ele>492.3</ele>
      </trkpt>
      <trkpt lat="45.74043" lon="5.55304">
        <ele>492.6</ele>
      </trkpt>
      <trkpt lat="45.74049" lon="5.55294">
        <ele>492.1</ele>
      </trkpt>
      <trkpt lat="45.74054" lon="5.55282">
        <ele>490.7</ele>
      </trkpt>
      <trkpt lat="45.7406" lon="5.55268">
        <ele>490.5</ele>
      </trkpt>
      <trkpt lat="45.74063" lon="5.55255">
        <ele>489.8</ele>
      </trkpt>
      <trkpt lat="45.74063" lon="5.55242">
        <ele>487.7</ele>
      </trkpt>
      <trkpt lat="45.74061" lon="5.55233">
        <ele>485.5</ele>
      </trkpt>
      <trkpt lat="45.74061" lon="5.55231">
        <ele>485.1</ele>
        <extensions>
          <visugpx:TrkExtension xmlns:visugpx="https://www.visugpx.com/editgpx/">
            <visugpx:node>17</visugpx:node>
            </visugpx:TrkExtension>
        </extensions>
      </trkpt>
      <trkpt lat="45.74007" lon="5.55198">
        <ele>469</ele>
        <time>2019-12-19T13:35:30+01:00</time>
        <extensions>
          <visugpx:TrkExtension xmlns:visugpx="https://www.visugpx.com/editgpx/">
            <visugpx:node>2</visugpx:node>
            </visugpx:TrkExtension>
        </extensions>
      </trkpt>
      <trkpt lat="45.73985" lon="5.55197">
        <ele>466</ele>
        <time>2019-12-19T13:35:57+01:00</time>
      </trkpt>
      <trkpt lat="45.73961" lon="5.55185">
        <ele>458</ele>
        <time>2019-12-19T13:36:11+01:00</time>
      </trkpt>
      <trkpt lat="45.73938" lon="5.55173">
        <ele>450</ele>
        <time>2019-12-19T13:36:38+01:00</time>
      </trkpt>
      <trkpt lat="45.73919" lon="5.55153">
        <ele>445</ele>
        <time>2019-12-19T13:36:55+01:00</time>
      </trkpt>
      <trkpt lat="45.73898" lon="5.55144">
        <ele>442</ele>
        <time>2019-12-19T13:37:48+01:00</time>
      </trkpt>
      <trkpt lat="45.73913" lon="5.55109">
        <ele>439</ele>
        <time>2019-12-19T13:38:02+01:00</time>
      </trkpt>
      <trkpt lat="45.73911" lon="5.55081">
        <ele>436</ele>
        <time>2019-12-19T13:38:36+01:00</time>
      </trkpt>
      <trkpt lat="45.73897" lon="5.55056">
        <ele>430</ele>
        <time>2019-12-19T13:39:10+01:00</time>
      </trkpt>
      <trkpt lat="45.73883" lon="5.55031">
        <ele>423</ele>
        <time>2019-12-19T13:39:39+01:00</time>
      </trkpt>
      <trkpt lat="45.73872" lon="5.55004">
        <ele>415</ele>
        <time>2019-12-19T13:40:04+01:00</time>
      </trkpt>
      <trkpt lat="45.73849" lon="5.54998">
        <ele>407</ele>
        <time>2019-12-19T13:40:33+01:00</time>
      </trkpt>
      <trkpt lat="45.73827" lon="5.54978">
        <ele>399</ele>
        <time>2019-12-19T13:40:58+01:00</time>
      </trkpt>
      <trkpt lat="45.73828" lon="5.54942">
        <ele>394</ele>
        <time>2019-12-19T13:41:20+01:00</time>
      </trkpt>
      <trkpt lat="45.73819" lon="5.54911">
        <ele>394</ele>
        <time>2019-12-19T13:41:43+01:00</time>
      </trkpt>
      <trkpt lat="45.73802" lon="5.54889">
        <ele>393</ele>
        <time>2019-12-19T13:42:05+01:00</time>
      </trkpt>
      <trkpt lat="45.73782" lon="5.54871">
        <ele>390</ele>
        <time>2019-12-19T13:42:24+01:00</time>
      </trkpt>
      <trkpt lat="45.73757" lon="5.54862">
        <ele>388</ele>
        <time>2019-12-19T13:42:46+01:00</time>
      </trkpt>
      <trkpt lat="45.73736" lon="5.54843">
        <ele>385</ele>
        <time>2019-12-19T13:43:02+01:00</time>
      </trkpt>
      <trkpt lat="45.7372" lon="5.54826">
        <ele>384</ele>
        <time>2019-12-19T13:43:28+01:00</time>
      </trkpt>
      <trkpt lat="45.73702" lon="5.54861">
        <ele>383</ele>
        <time>2019-12-19T13:43:45+01:00</time>
      </trkpt>
      <trkpt lat="45.73691" lon="5.54889">
        <ele>381</ele>
        <time>2019-12-19T13:44:05+01:00</time>
      </trkpt>
      <trkpt lat="45.7368" lon="5.54918">
        <ele>380</ele>
        <time>2019-12-19T13:44:21+01:00</time>
      </trkpt>
      <trkpt lat="45.7367" lon="5.54948">
        <ele>379</ele>
        <time>2019-12-19T13:44:39+01:00</time>
      </trkpt>
      <trkpt lat="45.73661" lon="5.54976">
        <ele>377</ele>
        <time>2019-12-19T13:45:17+01:00</time>
      </trkpt>
      <trkpt lat="45.73631" lon="5.54957">
        <ele>375</ele>
        <time>2019-12-19T13:45:36+01:00</time>
      </trkpt>
      <trkpt lat="45.7361" lon="5.54944">
        <ele>373</ele>
        <time>2019-12-19T13:45:53+01:00</time>
      </trkpt>
      <trkpt lat="45.73593" lon="5.54922">
        <ele>371</ele>
        <time>2019-12-19T13:46:11+01:00</time>
      </trkpt>
      <trkpt lat="45.73571" lon="5.54911">
        <ele>369</ele>
        <time>2019-12-19T13:46:32+01:00</time>
      </trkpt>
      <trkpt lat="45.73552" lon="5.54905">
        <ele>366</ele>
        <time>2019-12-19T13:46:48+01:00</time>
      </trkpt>
      <trkpt lat="45.7353" lon="5.54902">
        <ele>363</ele>
      </trkpt>
      <trkpt lat="45.73518" lon="5.54881">
        <ele>361</ele>
        <time>2019-12-19T13:47:06+01:00</time>
      </trkpt>
      <trkpt lat="45.73527" lon="5.54855">
        <ele>362</ele>
        <time>2019-12-19T13:47:26+01:00</time>
      </trkpt>
      <trkpt lat="45.73538" lon="5.54826">
        <ele>362</ele>
        <time>2019-12-19T13:47:44+01:00</time>
      </trkpt>
      <trkpt lat="45.73549" lon="5.54797">
        <ele>364</ele>
        <time>2019-12-19T13:48:05+01:00</time>
      </trkpt>
      <trkpt lat="45.73538" lon="5.54773">
        <ele>363</ele>
        <time>2019-12-19T13:48:54+01:00</time>
      </trkpt>
      <trkpt lat="45.73552" lon="5.54735">
        <ele>363</ele>
        <time>2019-12-19T13:49:14+01:00</time>
      </trkpt>
      <trkpt lat="45.73563" lon="5.54707">
        <ele>364</ele>
        <time>2019-12-19T13:49:30+01:00</time>
      </trkpt>
      <trkpt lat="45.73577" lon="5.5468">
        <ele>365</ele>
        <time>2019-12-19T13:49:48+01:00</time>
      </trkpt>
      <trkpt lat="45.73588" lon="5.54651">
        <ele>365</ele>
        <time>2019-12-19T13:50:10+01:00</time>
      </trkpt>
      <trkpt lat="45.73596" lon="5.54626">
        <ele>365</ele>
        <time>2019-12-19T13:50:29+01:00</time>
      </trkpt>
      <trkpt lat="45.73574" lon="5.54604">
        <ele>362</ele>
        <time>2019-12-19T13:50:57+01:00</time>
      </trkpt>
      <trkpt lat="45.73552" lon="5.54592">
        <ele>359</ele>
        <time>2019-12-19T13:51:14+01:00</time>
      </trkpt>
      <trkpt lat="45.73534" lon="5.54571">
        <ele>356</ele>
        <time>2019-12-19T13:51:32+01:00</time>
      </trkpt>
      <trkpt lat="45.73515" lon="5.54553">
        <ele>354</ele>
        <time>2019-12-19T13:51:49+01:00</time>
      </trkpt>
      <trkpt lat="45.73491" lon="5.5454">
        <ele>351</ele>
        <time>2019-12-19T13:52:09+01:00</time>
      </trkpt>
      <trkpt lat="45.73473" lon="5.54526">
        <ele>350</ele>
        <time>2019-12-19T13:52:29+01:00</time>
      </trkpt>
      <trkpt lat="45.73451" lon="5.54513">
        <ele>346</ele>
        <time>2019-12-19T13:52:46+01:00</time>
      </trkpt>
      <trkpt lat="45.7344" lon="5.54499">
        <ele>344</ele>
        <time>2019-12-19T13:53:23+01:00</time>
      </trkpt>
      <trkpt lat="45.73424" lon="5.54511">
        <ele>343</ele>
        <time>2019-12-19T13:53:44+01:00</time>
      </trkpt>
      <trkpt lat="45.7339" lon="5.54471">
        <ele>340</ele>
        <time>2019-12-19T13:54:04+01:00</time>
      </trkpt>
      <trkpt lat="45.73375" lon="5.54435">
        <ele>341</ele>
        <time>2019-12-19T13:54:49+01:00</time>
      </trkpt>
      <trkpt lat="45.73369" lon="5.54417">
        <ele>342</ele>
        <time>2019-12-19T13:55:11+01:00</time>
      </trkpt>
      <trkpt lat="45.7336" lon="5.54387">
        <ele>346</ele>
        <time>2019-12-19T13:55:37+01:00</time>
      </trkpt>
      <trkpt lat="45.73372" lon="5.54379">
        <ele>344</ele>
        <time>2019-12-19T13:56:23+01:00</time>
      </trkpt>
      <trkpt lat="45.73386" lon="5.54359">
        <ele>343</ele>
        <time>2019-12-19T13:56:54+01:00</time>
      </trkpt>
      <trkpt lat="45.73399" lon="5.5433">
        <ele>346</ele>
        <time>2019-12-19T13:57:17+01:00</time>
      </trkpt>
      <trkpt lat="45.73421" lon="5.54308">
        <ele>348</ele>
        <time>2019-12-19T13:58:19+01:00</time>
      </trkpt>
      <trkpt lat="45.73443" lon="5.5428">
        <ele>350</ele>
        <time>2019-12-19T13:58:55+01:00</time>
      </trkpt>
      <trkpt lat="45.73471" lon="5.54277">
        <ele>350</ele>
        <time>2019-12-19T13:59:23+01:00</time>
      </trkpt>
      <trkpt lat="45.73503" lon="5.54269">
        <ele>352</ele>
        <time>2019-12-19T13:59:51+01:00</time>
      </trkpt>
      <trkpt lat="45.73527" lon="5.54256">
        <ele>352</ele>
        <time>2019-12-19T14:00:09+01:00</time>
      </trkpt>
      <trkpt lat="45.73559" lon="5.54246">
        <ele>352</ele>
        <time>2019-12-19T14:00:33+01:00</time>
      </trkpt>
      <trkpt lat="45.73578" lon="5.54219">
        <ele>352</ele>
        <time>2019-12-19T14:01:00+01:00</time>
      </trkpt>
      <trkpt lat="45.73607" lon="5.54199">
        <ele>355</ele>
        <time>2019-12-19T14:01:18+01:00</time>
      </trkpt>
      <trkpt lat="45.73599" lon="5.54164">
        <ele>354</ele>
        <time>2019-12-19T14:01:46+01:00</time>
      </trkpt>
      <trkpt lat="45.73581" lon="5.54142">
        <ele>351</ele>
        <time>2019-12-19T14:02:12+01:00</time>
      </trkpt>
      <trkpt lat="45.73589" lon="5.54111">
        <ele>349</ele>
        <time>2019-12-19T14:02:39+01:00</time>
      </trkpt>
      <trkpt lat="45.73605" lon="5.54087">
        <ele>350</ele>
        <time>2019-12-19T14:02:59+01:00</time>
      </trkpt>
      <trkpt lat="45.7362" lon="5.54061">
        <ele>349</ele>
        <time>2019-12-19T14:03:15+01:00</time>
      </trkpt>
      <trkpt lat="45.73639" lon="5.54041">
        <ele>349</ele>
        <time>2019-12-19T14:03:34+01:00</time>
      </trkpt>
      <trkpt lat="45.73659" lon="5.54024">
        <ele>350</ele>
        <time>2019-12-19T14:03:55+01:00</time>
      </trkpt>
      <trkpt lat="45.73678" lon="5.54008">
        <ele>351</ele>
        <time>2019-12-19T14:04:11+01:00</time>
      </trkpt>
      <trkpt lat="45.73698" lon="5.5399">
        <ele>352</ele>
        <time>2019-12-19T14:04:32+01:00</time>
      </trkpt>
      <trkpt lat="45.73716" lon="5.53971">
        <ele>352</ele>
        <time>2019-12-19T14:04:51+01:00</time>
      </trkpt>
      <trkpt lat="45.73733" lon="5.5395">
        <ele>353</ele>
        <time>2019-12-19T14:05:08+01:00</time>
      </trkpt>
      <trkpt lat="45.73752" lon="5.53932">
        <ele>356</ele>
        <time>2019-12-19T14:05:31+01:00</time>
      </trkpt>
      <trkpt lat="45.73772" lon="5.53914">
        <ele>359</ele>
        <time>2019-12-19T14:06:24+01:00</time>
      </trkpt>
      <trkpt lat="45.73794" lon="5.53905">
        <ele>360</ele>
        <time>2019-12-19T14:06:45+01:00</time>
      </trkpt>
      <trkpt lat="45.73805" lon="5.53867">
        <ele>361</ele>
        <time>2019-12-19T14:07:07+01:00</time>
      </trkpt>
      <trkpt lat="45.73829" lon="5.5385">
        <ele>362</ele>
        <time>2019-12-19T14:07:32+01:00</time>
      </trkpt>
      <trkpt lat="45.73822" lon="5.5382">
        <ele>362</ele>
        <time>2019-12-19T14:08:01+01:00</time>
      </trkpt>
      <trkpt lat="45.73816" lon="5.53794">
        <ele>363</ele>
        <time>2019-12-19T14:08:21+01:00</time>
      </trkpt>
      <trkpt lat="45.73805" lon="5.53763">
        <ele>363</ele>
        <time>2019-12-19T14:08:37+01:00</time>
      </trkpt>
      <trkpt lat="45.73793" lon="5.53735">
        <ele>363</ele>
        <time>2019-12-19T14:08:54+01:00</time>
      </trkpt>
      <trkpt lat="45.73782" lon="5.53707">
        <ele>363</ele>
        <time>2019-12-19T14:09:13+01:00</time>
      </trkpt>
      <trkpt lat="45.73769" lon="5.53678">
        <ele>363</ele>
        <time>2019-12-19T14:09:39+01:00</time>
      </trkpt>
      <trkpt lat="45.73757" lon="5.5365">
        <ele>362</ele>
        <time>2019-12-19T14:09:55+01:00</time>
      </trkpt>
      <trkpt lat="45.73744" lon="5.53624">
        <ele>362</ele>
        <time>2019-12-19T14:10:13+01:00</time>
      </trkpt>
      <trkpt lat="45.73731" lon="5.53596">
        <ele>361</ele>
        <time>2019-12-19T14:10:31+01:00</time>
      </trkpt>
      <trkpt lat="45.73729" lon="5.53564">
        <ele>360</ele>
        <time>2019-12-19T14:10:51+01:00</time>
      </trkpt>
      <trkpt lat="45.73747" lon="5.53543">
        <ele>360</ele>
        <time>2019-12-19T14:13:02+01:00</time>
      </trkpt>
      <trkpt lat="45.73767" lon="5.53525">
        <ele>361</ele>
        <time>2019-12-19T14:13:30+01:00</time>
      </trkpt>
      <trkpt lat="45.73782" lon="5.535">
        <ele>360</ele>
        <time>2019-12-19T14:13:55+01:00</time>
      </trkpt>
      <trkpt lat="45.738" lon="5.53479">
        <ele>360</ele>
        <time>2019-12-19T14:14:16+01:00</time>
      </trkpt>
      <trkpt lat="45.73823" lon="5.53483">
        <ele>361</ele>
        <time>2019-12-19T14:14:35+01:00</time>
      </trkpt>
      <trkpt lat="45.73845" lon="5.53481">
        <ele>363</ele>
        <time>2019-12-19T14:14:56+01:00</time>
      </trkpt>
      <trkpt lat="45.7386" lon="5.53455">
        <ele>366</ele>
        <time>2019-12-19T14:15:19+01:00</time>
      </trkpt>
      <trkpt lat="45.73879" lon="5.53436">
        <ele>367</ele>
        <time>2019-12-19T14:15:42+01:00</time>
      </trkpt>
      <trkpt lat="45.73895" lon="5.53413">
        <ele>367</ele>
        <time>2019-12-19T14:16:57+01:00</time>
      </trkpt>
      <trkpt lat="45.73917" lon="5.534">
        <ele>367</ele>
        <time>2019-12-19T14:17:22+01:00</time>
      </trkpt>
      <trkpt lat="45.7394" lon="5.53399">
        <ele>368</ele>
        <time>2019-12-19T14:17:41+01:00</time>
      </trkpt>
      <trkpt lat="45.73974" lon="5.53365">
        <ele>367</ele>
        <time>2019-12-19T14:18:11+01:00</time>
      </trkpt>
      <trkpt lat="45.73956" lon="5.5334">
        <ele>363</ele>
        <time>2019-12-19T14:18:46+01:00</time>
      </trkpt>
      <trkpt lat="45.7395" lon="5.53309">
        <ele>362</ele>
        <time>2019-12-19T14:19:05+01:00</time>
      </trkpt>
      <trkpt lat="45.73934" lon="5.53286">
        <ele>362</ele>
        <time>2019-12-19T14:19:24+01:00</time>
      </trkpt>
      <trkpt lat="45.7391" lon="5.53282">
        <ele>362</ele>
        <time>2019-12-19T14:19:44+01:00</time>
      </trkpt>
      <trkpt lat="45.73887" lon="5.53284">
        <ele>361</ele>
        <time>2019-12-19T14:20:02+01:00</time>
      </trkpt>
      <trkpt lat="45.73864" lon="5.53281">
        <ele>359</ele>
        <time>2019-12-19T14:20:20+01:00</time>
      </trkpt>
      <trkpt lat="45.73841" lon="5.53272">
        <ele>356</ele>
        <time>2019-12-19T14:20:38+01:00</time>
      </trkpt>
      <trkpt lat="45.73824" lon="5.53249">
        <ele>354</ele>
        <time>2019-12-19T14:20:58+01:00</time>
      </trkpt>
      <trkpt lat="45.73826" lon="5.53216">
        <ele>356</ele>
        <time>2019-12-19T14:21:17+01:00</time>
      </trkpt>
      <trkpt lat="45.73834" lon="5.53185">
        <ele>357</ele>
        <time>2019-12-19T14:21:39+01:00</time>
      </trkpt>
      <trkpt lat="45.73843" lon="5.53154">
        <ele>358</ele>
        <time>2019-12-19T14:21:57+01:00</time>
      </trkpt>
      <trkpt lat="45.73854" lon="5.53126">
        <ele>358</ele>
        <time>2019-12-19T14:22:16+01:00</time>
      </trkpt>
      <trkpt lat="45.73866" lon="5.53098">
        <ele>358</ele>
        <time>2019-12-19T14:22:36+01:00</time>
      </trkpt>
      <trkpt lat="45.73883" lon="5.53076">
        <ele>359</ele>
        <time>2019-12-19T14:22:54+01:00</time>
      </trkpt>
      <trkpt lat="45.73901" lon="5.53054">
        <ele>362</ele>
        <time>2019-12-19T14:23:14+01:00</time>
      </trkpt>
      <trkpt lat="45.73919" lon="5.53034">
        <ele>364</ele>
        <time>2019-12-19T14:23:34+01:00</time>
      </trkpt>
      <trkpt lat="45.73939" lon="5.53013">
        <ele>365</ele>
        <time>2019-12-19T14:23:58+01:00</time>
      </trkpt>
      <trkpt lat="45.73958" lon="5.52993">
        <ele>367</ele>
        <time>2019-12-19T14:24:18+01:00</time>
      </trkpt>
      <trkpt lat="45.73978" lon="5.52978">
        <ele>369</ele>
        <time>2019-12-19T14:24:37+01:00</time>
      </trkpt>
      <trkpt lat="45.73998" lon="5.52962">
        <ele>370</ele>
        <time>2019-12-19T14:24:59+01:00</time>
      </trkpt>
      <trkpt lat="45.74021" lon="5.5296">
        <ele>370</ele>
        <time>2019-12-19T14:25:21+01:00</time>
      </trkpt>
      <trkpt lat="45.74042" lon="5.52949">
        <ele>370</ele>
        <time>2019-12-19T14:25:41+01:00</time>
      </trkpt>
      <trkpt lat="45.74065" lon="5.52946">
        <ele>370</ele>
        <time>2019-12-19T14:26:05+01:00</time>
      </trkpt>
      <trkpt lat="45.74089" lon="5.52949">
        <ele>370</ele>
        <time>2019-12-19T14:26:26+01:00</time>
      </trkpt>
      <trkpt lat="45.7411" lon="5.52965">
        <ele>370</ele>
        <time>2019-12-19T14:26:45+01:00</time>
      </trkpt>
      <trkpt lat="45.74131" lon="5.5298">
        <ele>370</ele>
        <time>2019-12-19T14:27:05+01:00</time>
      </trkpt>
      <trkpt lat="45.74151" lon="5.52996">
        <ele>370</ele>
        <time>2019-12-19T14:27:22+01:00</time>
      </trkpt>
      <trkpt lat="45.74172" lon="5.5301">
        <ele>370</ele>
        <time>2019-12-19T14:27:42+01:00</time>
      </trkpt>
      <trkpt lat="45.74195" lon="5.53015">
        <ele>371</ele>
        <time>2019-12-19T14:28:01+01:00</time>
      </trkpt>
      <trkpt lat="45.74217" lon="5.53006">
        <ele>372</ele>
        <time>2019-12-19T14:28:19+01:00</time>
      </trkpt>
      <trkpt lat="45.7424" lon="5.53004">
        <ele>373</ele>
        <time>2019-12-19T14:28:39+01:00</time>
      </trkpt>
      <trkpt lat="45.74262" lon="5.53009">
        <ele>372</ele>
        <time>2019-12-19T14:28:57+01:00</time>
      </trkpt>
      <trkpt lat="45.74279" lon="5.53031">
        <ele>372</ele>
        <time>2019-12-19T14:29:15+01:00</time>
      </trkpt>
      <trkpt lat="45.74291" lon="5.5306">
        <ele>372</ele>
        <time>2019-12-19T14:29:32+01:00</time>
      </trkpt>
      <trkpt lat="45.743" lon="5.53091">
        <ele>374</ele>
        <time>2019-12-19T14:29:52+01:00</time>
      </trkpt>
      <trkpt lat="45.74317" lon="5.53112">
        <ele>377</ele>
        <time>2019-12-19T14:31:23+01:00</time>
      </trkpt>
      <trkpt lat="45.7434" lon="5.53116">
        <ele>379</ele>
        <time>2019-12-19T14:32:02+01:00</time>
      </trkpt>
      <trkpt lat="45.74362" lon="5.53122">
        <ele>381</ele>
        <time>2019-12-19T14:32:19+01:00</time>
      </trkpt>
      <trkpt lat="45.74385" lon="5.5313">
        <ele>383</ele>
        <time>2019-12-19T14:32:40+01:00</time>
      </trkpt>
      <trkpt lat="45.74407" lon="5.53127">
        <ele>385</ele>
        <time>2019-12-19T14:32:57+01:00</time>
      </trkpt>
      <trkpt lat="45.7443" lon="5.5312">
        <ele>385</ele>
        <time>2019-12-19T14:33:19+01:00</time>
      </trkpt>
      <trkpt lat="45.74453" lon="5.53122">
        <ele>386</ele>
        <time>2019-12-19T14:33:38+01:00</time>
      </trkpt>
      <trkpt lat="45.74476" lon="5.53125">
        <ele>387</ele>
        <time>2019-12-19T14:33:55+01:00</time>
      </trkpt>
      <trkpt lat="45.74498" lon="5.53132">
        <ele>386</ele>
        <time>2019-12-19T14:34:13+01:00</time>
      </trkpt>
      <trkpt lat="45.7452" lon="5.53141">
        <ele>384</ele>
        <time>2019-12-19T14:34:30+01:00</time>
      </trkpt>
      <trkpt lat="45.74542" lon="5.53149">
        <ele>384</ele>
        <time>2019-12-19T14:34:51+01:00</time>
      </trkpt>
      <trkpt lat="45.74564" lon="5.53159">
        <ele>385</ele>
        <time>2019-12-19T14:35:10+01:00</time>
      </trkpt>
      <trkpt lat="45.74586" lon="5.53167">
        <ele>386</ele>
        <time>2019-12-19T14:35:30+01:00</time>
      </trkpt>
      <trkpt lat="45.74609" lon="5.53177">
        <ele>387</ele>
        <time>2019-12-19T14:35:51+01:00</time>
      </trkpt>
      <trkpt lat="45.7463" lon="5.5319">
        <ele>387</ele>
        <time>2019-12-19T14:36:09+01:00</time>
      </trkpt>
      <trkpt lat="45.74652" lon="5.532">
        <ele>387</ele>
        <time>2019-12-19T14:36:27+01:00</time>
      </trkpt>
      <trkpt lat="45.74674" lon="5.53213">
        <ele>387</ele>
        <time>2019-12-19T14:36:50+01:00</time>
      </trkpt>
      <trkpt lat="45.74663" lon="5.53244">
        <ele>389</ele>
        <time>2019-12-19T14:37:09+01:00</time>
      </trkpt>
      <trkpt lat="45.74678" lon="5.53269">
        <ele>390</ele>
        <time>2019-12-19T14:37:29+01:00</time>
      </trkpt>
      <trkpt lat="45.747" lon="5.53265">
        <ele>391</ele>
        <time>2019-12-19T14:37:59+01:00</time>
      </trkpt>
      <trkpt lat="45.74724" lon="5.5323">
        <ele>390</ele>
        <time>2019-12-19T14:38:18+01:00</time>
        <extensions>
          <visugpx:TrkExtension xmlns:visugpx="https://www.visugpx.com/editgpx/">
            <visugpx:node>1</visugpx:node>
            </visugpx:TrkExtension>
        </extensions>
      </trkpt>
    </trkseg>
  </trk>
</gpx>